GFSSGP_sfc_thetae_057.txt.gz
Theta_e
321 317 312 306 292 291 288 293 299 314 316 320 325 322 320 323 320 311 337 337 340 342 346 347 347 349 349 350 350 350 350 350 349 349 348 347 346 345 343 343 342 340 337 334 333 334 333 333 333
312 315 310 299 288 283 288 300 312 315 319 322 324 322 321 320 329 332 335 338 339 341 344 346 346 348 349 349 349 349 349 348 348 347 347 347 344 342 340 340 340 338 334 333 334 334 333 332 332
315 313 297 290 286 286 289 312 312 316 319 320 317 322 323 322 331 334 340 339 338 340 343 346 345 346 348 348 348 347 347 346 346 346 346 345 342 340 339 339 338 336 333 334 334 334 332 332 333
305 300 298 288 287 293 296 311 318 317 318 320 317 313 322 329 332 336 340 339 338 341 343 342 343 345 347 347 347 346 346 345 344 344 344 342 340 338 337 338 337 333 333 334 333 332 332 333 332
302 297 288 286 290 297 308 314 313 312 315 317 319 312 316 331 336 336 338 339 339 340 342 342 341 344 346 346 346 345 344 343 341 341 341 341 338 336 335 337 336 334 333 332 332 332 332 332 331
298 295 286 286 292 310 313 315 314 312 314 316 314 314 316 332 334 336 337 338 338 337 339 339 343 343 342 343 343 342 341 340 340 340 340 339 338 337 337 336 335 334 333 333 332 333 332 331 330
294 290 288 290 293 308 311 316 312 311 311 313 318 312 318 321 330 336 336 337 336 338 338 340 339 340 339 338 339 338 338 338 338 337 337 336 335 335 336 335 335 334 334 333 332 331 331 330 329
297 292 289 292 297 303 311 313 315 314 313 318 320 312 313 321 328 329 333 335 335 337 338 336 339 338 337 337 337 336 335 334 334 334 334 333 333 333 334 333 334 334 333 333 332 332 330 330 330
299 290 289 292 303 304 311 310 314 319 313 316 318 317 325 329 329 326 327 329 331 334 335 336 338 336 336 336 336 335 335 333 332 332 332 329 329 329 331 331 332 334 333 332 331 331 330 328 328
294 289 293 306 308 306 308 311 312 312 313 312 314 321 328 326 326 326 324 324 327 328 333 334 336 335 334 335 331 330 331 328 327 327 328 326 327 327 330 330 331 333 332 332 331 331 330 327 322
296 293 303 309 310 310 308 309 313 309 304 311 309 319 324 320 322 323 325 325 326 328 331 332 334 333 327 329 329 326 325 325 326 325 326 329 331 329 331 328 329 329 331 328 329 327 325 324 320
295 305 312 311 311 310 308 308 309 309 310 316 317 323 324 319 319 321 324 325 327 325 325 325 326 324 323 327 325 323 324 328 331 332 331 329 328 327 326 326 328 328 326 321 320 319 318 317 317
299 308 309 309 309 308 311 306 305 306 318 324 324 327 324 321 320 322 325 327 323 322 323 323 323 322 322 327 328 330 329 331 330 330 333 330 328 326 327 325 321 319 320 317 315 315 313 313 314
303 306 306 306 306 310 307 306 306 309 317 320 324 323 322 323 322 324 326 324 320 322 322 322 324 323 330 328 324 323 322 324 326 326 328 329 327 324 323 320 318 317 316 312 312 310 311 310 309
305 300 305 306 307 306 309 303 303 308 316 316 319 320 319 320 318 321 323 321 320 322 323 323 324 329 328 324 323 322 320 320 322 324 325 324 323 320 317 315 313 312 311 310 310 307 306 305 306
299 299 294 304 306 307 305 295 305 312 311 310 311 317 316 321 319 322 323 318 323 323 323 326 330 326 324 322 321 321 320 319 319 320 319 319 318 317 314 311 310 311 310 310 307 305 303 302 301
297 291 294 297 306 305 302 296 305 311 310 309 309 309 314 311 314 314 318 322 324 324 324 325 324 322 322 320 319 319 319 318 316 316 315 315 315 315 312 311 310 311 309 307 306 303 301 299 298
292 293 295 294 300 302 298 297 304 307 308 307 307 308 308 308 310 313 315 322 325 326 326 325 322 320 319 319 318 318 317 316 316 313 314 314 314 314 312 310 309 308 306 304 303 300 300 298 297
298 296 294 297 299 298 297 299 304 306 308 307 306 308 308 309 315 315 318 318 324 325 324 322 320 320 320 318 317 316 314 314 313 313 314 313 312 312 310 309 307 305 303 302 301 299 298 296 296
298 296 295 299 300 298 295 296 300 306 305 305 306 308 308 313 314 318 319 320 325 325 323 322 320 322 321 320 319 316 314 312 311 311 311 312 311 311 310 307 304 303 301 300 299 298 296 295 296
298 295 296 296 298 296 294 293 297 302 307 307 308 311 312 313 314 318 321 323 323 322 322 322 322 322 322 323 323 316 313 311 309 308 308 310 311 309 307 305 303 301 300 298 297 297 296 293 294
294 302 301 298 295 288 296 287 295 300 302 306 310 310 312 315 318 320 321 321 322 323 324 325 324 323 324 324 316 313 308 307 307 308 309 309 310 308 307 304 302 302 301 299 298 299 296 295 293
298 303 301 299 295 293 293 289 293 299 299 302 305 308 311 315 317 319 320 321 321 323 322 322 323 323 321 317 314 310 308 309 311 313 311 310 310 309 306 304 301 301 301 299 299 299 296 295 293
305 301 300 298 295 287 294 292 289 294 299 304 307 309 312 314 318 321 321 322 320 320 321 322 318 315 313 313 311 310 308 305 303 303 304 304 303 302 302 302 300 299 298 297 297 297 296 296 295
300 295 287 284 284 284 297 293 293 300 305 306 307 308 311 313 313 317 318 316 314 313 313 312 312 311 312 312 309 305 303 302 302 302 302 302 300 301 300 300 298 297 297 297 297 296 296 296 294
297 296 287 282 282 286 297 291 296 302 306 308 309 309 312 310 311 311 312 312 311 312 311 310 311 311 311 308 306 304 304 303 304 303 302 301 300 300 297 295 295 295 295 294 294 293 293 295 293
297 294 299 292 292 284 290 294 301 302 304 305 306 310 309 309 308 309 310 312 311 311 311 310 310 311 310 305 303 302 302 302 303 303 303 302 298 297 295 294 294 294 294 294 293 292 292 293 292
299 301 291 290 281 279 286 288 291 297 300 305 305 307 309 310 308 308 310 311 313 313 312 311 312 310 305 302 301 302 301 302 304 302 301 298 295 295 294 293 293 293 293 293 292 292 292 291 290
296 293 294 293 290 282 280 286 298 299 301 302 305 309 309 309 307 307 308 312 313 314 314 309 305 305 302 299 300 301 302 303 302 299 296 294 294 294 294 294 294 294 293 293 292 291 291 290 289
298 296 296 285 286 288 284 286 298 300 302 303 304 309 310 310 308 308 309 313 313 313 312 305 304 301 299 301 302 303 304 302 298 296 294 294 293 294 294 294 294 294 293 292 291 290 290 289 287

GFSSGP_sfc_thetae_060.txt.gz
Theta_e
318 316 309 304 292 288 286 290 296 306 312 321 322 321 320 323 318 308 334 338 342 344 347 348 347 349 349 349 349 349 349 349 347 348 347 346 344 341 340 341 340 337 334 334 334 334 333 333 332
313 314 307 296 287 282 285 294 299 313 317 322 322 324 321 320 330 329 331 339 343 344 346 347 346 347 349 348 348 347 348 348 347 347 345 343 341 339 338 337 337 336 335 334 334 333 332 331 332
311 310 298 291 284 283 285 307 310 314 317 319 315 321 322 323 332 333 333 337 342 344 345 346 345 346 347 348 347 346 347 346 346 346 344 340 339 338 336 337 336 336 334 334 333 332 331 331 333
303 298 294 287 284 290 295 304 315 316 316 317 316 312 323 333 332 336 336 338 338 341 344 343 343 345 347 347 347 346 346 345 344 343 342 340 338 336 335 336 336 335 334 333 332 331 331 332 332
299 294 287 283 286 301 311 312 312 311 314 314 315 311 318 332 336 337 335 338 338 341 341 341 341 344 344 346 346 344 343 342 342 342 341 339 336 335 335 336 336 336 333 332 332 331 332 331 331
296 292 284 284 289 309 312 313 313 311 312 313 312 313 316 334 334 336 338 338 337 335 336 338 339 339 341 343 343 341 340 340 340 340 339 338 337 336 336 336 335 335 334 333 332 332 331 331 331
293 289 285 289 289 306 310 314 311 312 310 310 316 311 317 329 334 336 335 336 335 335 335 336 337 337 339 339 338 337 337 337 338 337 336 336 335 335 335 335 335 334 334 333 332 330 330 331 331
295 291 286 290 290 300 310 313 316 314 309 317 319 311 311 324 333 334 333 333 334 335 335 334 335 338 337 337 335 335 335 334 334 334 333 332 332 333 334 333 334 334 333 332 330 330 329 329 329
296 289 287 289 295 303 310 310 313 318 314 316 319 317 322 326 330 329 328 330 330 332 333 334 335 335 335 334 334 334 334 333 332 332 332 328 327 328 329 330 332 333 332 331 330 330 329 328 327
292 287 289 300 306 304 307 310 310 311 311 312 316 324 326 324 325 322 323 324 326 328 330 334 334 334 334 334 330 329 330 328 327 327 326 325 325 326 329 329 330 332 331 331 331 330 328 325 319
292 290 300 307 308 307 305 307 311 308 302 310 312 321 324 322 322 320 323 324 323 326 331 333 333 333 330 329 327 325 324 323 324 324 324 325 328 327 327 326 328 327 331 325 322 319 318 316 315
293 300 307 309 309 308 305 309 308 306 308 316 314 323 323 322 321 319 321 322 322 325 328 330 331 328 325 327 324 322 322 324 327 329 329 327 326 324 324 325 323 320 319 317 316 314 314 312 312
296 306 308 309 308 309 310 304 305 307 318 318 322 321 318 318 320 320 322 324 323 325 326 325 328 321 323 324 324 326 328 328 328 329 329 327 325 324 321 319 318 316 314 312 310 310 309 308 307
303 305 304 304 306 307 305 303 306 307 315 317 318 318 318 319 322 323 324 325 323 323 321 322 322 323 327 324 324 323 324 324 326 327 327 326 324 321 318 316 315 313 311 310 307 305 304 303 303
304 301 302 303 305 302 304 300 302 308 313 318 320 319 318 319 321 321 324 324 321 321 321 321 323 327 323 322 321 319 322 324 323 323 323 321 319 317 314 312 310 309 309 306 305 303 302 301 301
297 297 293 301 304 306 304 295 303 309 313 314 319 319 318 318 320 322 324 324 321 321 321 323 330 324 322 320 319 318 318 318 319 319 318 318 316 313 310 309 308 309 308 305 304 302 299 298 298
295 290 292 298 304 302 300 295 305 311 312 311 314 316 315 313 315 317 324 319 321 321 321 324 323 321 319 319 318 317 317 316 316 315 313 314 313 312 309 308 308 308 306 304 304 300 298 296 296
291 292 294 293 301 301 298 296 303 308 309 307 312 314 312 312 315 319 321 319 321 321 323 323 322 320 318 318 317 316 315 314 313 312 311 312 313 313 310 308 306 305 303 302 300 297 297 296 295
298 296 293 295 299 299 296 295 300 304 305 306 310 313 314 313 316 319 320 320 321 321 323 322 320 319 318 316 315 313 312 312 311 311 312 311 311 310 308 306 304 302 301 300 299 297 295 294 294
298 295 294 297 297 298 294 295 300 304 306 307 305 305 306 309 310 313 317 320 322 322 321 320 320 319 319 318 317 316 313 312 311 310 310 310 309 309 306 304 302 301 299 298 297 296 294 294 294
297 295 293 293 296 297 293 293 297 303 305 306 307 308 308 311 312 314 317 321 321 320 319 319 320 320 319 318 319 313 310 309 307 307 306 308 309 308 306 304 302 300 299 298 296 296 295 292 293
292 299 298 296 291 286 294 284 293 298 304 305 306 307 308 311 314 319 320 321 322 321 319 320 321 320 319 320 318 312 308 306 306 306 307 307 308 306 305 303 301 300 299 298 297 298 295 294 292
296 301 299 297 292 290 291 287 290 298 297 302 305 307 310 313 315 319 320 321 321 321 321 320 320 320 321 321 317 313 307 306 307 308 307 307 306 306 304 302 300 299 299 297 296 296 295 294 292
302 298 298 296 292 286 291 289 288 293 298 301 304 308 310 313 315 319 321 323 321 321 319 319 319 320 320 317 312 309 307 306 305 304 303 304 303 303 301 300 298 297 296 296 295 294 294 294 293
298 293 284 283 283 283 294 290 291 297 300 301 303 306 309 313 316 317 317 318 318 318 319 317 316 311 310 308 307 306 303 302 301 301 302 301 301 301 300 299 295 295 294 294 293 292 292 292 292
296 293 285 280 280 284 294 288 293 301 303 305 307 308 311 314 317 317 317 316 316 316 314 313 310 309 307 304 303 302 302 301 302 302 302 302 301 298 298 296 294 293 293 292 292 291 290 291 291
295 291 297 290 289 284 287 292 298 301 300 303 304 308 308 310 314 314 314 313 311 309 308 309 309 309 305 303 302 301 302 303 301 303 303 302 301 297 295 293 292 292 292 292 292 290 290 290 290
297 300 290 290 280 279 284 286 290 296 299 301 302 305 307 308 310 311 312 311 311 310 309 308 309 308 303 301 301 301 301 303 302 301 303 299 297 295 293 292 292 292 292 293 292 290 290 289 288
294 292 293 292 287 281 279 284 294 297 301 301 303 307 308 307 308 309 311 311 311 311 310 308 306 303 301 299 299 301 301 303 302 299 297 296 294 293 293 293 292 292 293 293 290 290 290 288 287
296 294 294 285 285 286 282 284 296 299 301 303 304 308 309 309 307 309 310 311 310 310 306 305 304 302 300 301 302 303 303 302 300 297 295 295 293 293 292 293 293 293 294 292 290 289 289 289 287

GFSSGP_sfc_thetae_063.txt.gz
Theta_e
317 312 307 302 291 288 285 288 296 296 309 319 323 321 319 320 315 306 330 333 340 345 346 346 346 347 347 348 348 348 348 346 345 344 344 342 340 340 338 338 338 337 335 334 333 332 332 334 336
311 312 303 293 286 282 284 290 301 305 315 322 322 321 321 318 329 329 330 338 342 344 345 346 346 346 347 347 347 348 347 346 345 343 341 340 339 338 335 336 338 337 334 333 332 332 333 333 335
308 306 297 290 283 282 284 296 308 313 316 317 316 320 321 323 329 331 335 341 342 343 344 345 344 345 346 346 347 347 347 346 345 343 340 339 338 336 335 337 337 337 333 332 332 332 332 333 334
301 297 293 286 283 288 296 305 312 314 313 316 315 312 325 333 332 332 336 341 342 343 345 341 340 344 345 346 346 345 345 344 343 341 341 338 336 335 334 337 337 336 333 332 331 331 331 332 332
297 292 286 282 285 295 309 310 310 309 311 313 313 311 317 332 336 333 335 339 341 341 342 341 339 343 345 346 345 345 344 343 342 341 340 339 336 334 335 337 336 336 333 332 331 332 334 332 331
295 290 283 282 286 307 310 311 312 310 311 311 312 313 318 333 331 333 338 336 336 335 336 338 340 339 340 342 343 341 341 341 340 340 339 337 337 336 336 336 336 335 334 333 332 332 333 333 332
292 288 284 284 287 296 308 312 309 309 309 312 317 310 319 329 333 335 335 334 334 334 333 335 336 337 337 338 338 337 338 338 339 338 337 336 335 335 335 335 335 334 333 333 332 331 331 332 332
294 290 283 286 287 291 309 311 314 311 308 318 318 309 313 327 333 333 333 332 332 333 333 333 334 335 336 335 335 335 335 335 335 335 333 333 333 333 333 333 334 334 333 333 332 331 330 329 330
293 288 285 288 290 297 309 308 312 315 312 315 318 317 323 330 331 330 329 329 329 332 332 332 333 333 334 333 334 334 334 333 332 332 331 327 326 326 326 331 332 333 332 332 332 330 328 325 325
291 286 288 294 301 303 306 309 308 309 309 311 317 324 328 328 327 325 324 324 325 327 323 325 330 333 333 333 330 329 329 327 327 326 324 324 324 325 328 329 331 332 331 331 329 326 323 319 314
291 290 293 305 307 306 304 306 309 306 302 308 314 318 322 323 323 323 323 325 322 325 326 328 330 332 330 329 326 325 323 323 323 323 323 324 326 327 326 325 326 325 323 317 317 315 313 311 309
290 295 300 305 307 306 304 307 306 304 307 314 321 321 320 319 320 321 321 322 322 324 325 328 330 331 328 326 323 321 321 323 323 323 325 326 324 323 322 319 318 317 315 313 311 310 309 307 306
293 302 306 308 308 306 308 303 304 305 315 318 323 322 320 318 319 322 322 321 322 322 326 327 329 324 324 322 320 322 325 326 328 328 327 325 322 319 318 316 314 312 311 309 307 305 304 303 303
302 303 301 304 305 306 302 302 303 308 315 319 319 318 319 318 319 319 321 319 319 322 324 325 325 320 324 322 324 325 326 326 326 326 325 325 322 318 315 313 312 310 308 306 304 302 301 299 299
303 299 302 302 302 301 304 299 300 310 312 315 316 317 319 317 318 315 319 321 323 323 323 322 321 324 323 322 322 322 324 325 324 323 322 320 317 315 312 310 308 307 306 304 302 300 299 298 299
296 296 293 300 302 304 302 293 304 310 313 315 315 316 317 317 318 319 322 323 324 323 320 320 327 322 320 319 318 319 321 320 320 320 318 316 315 311 309 308 308 307 304 303 301 299 297 297 296
292 287 291 297 303 301 298 294 305 308 313 314 315 315 316 316 319 319 323 323 322 321 319 323 322 319 318 317 316 316 317 316 316 315 314 313 311 310 308 307 306 305 304 303 301 298 297 295 294
288 289 292 293 297 299 295 294 303 308 311 312 314 314 314 315 316 319 321 323 319 319 319 323 320 318 316 316 315 314 313 313 312 311 311 311 311 310 307 306 305 304 302 300 298 296 296 295 294
296 293 291 295 296 297 296 294 298 306 305 308 310 313 312 313 314 316 321 319 317 317 320 321 318 317 317 315 313 311 310 310 309 309 310 311 311 310 307 304 302 301 300 298 297 296 294 293 293
296 293 292 296 297 297 294 293 295 302 304 308 310 311 312 311 311 314 316 315 316 318 319 319 319 317 317 317 315 314 312 311 309 310 309 309 308 307 305 303 301 300 299 297 296 295 294 293 293
295 293 293 293 293 295 293 292 295 303 306 307 311 313 314 312 311 313 316 315 317 318 318 319 318 318 318 317 315 311 309 308 307 307 306 307 308 306 305 303 300 298 298 296 295 294 293 292 292
291 297 296 295 289 286 292 284 292 298 303 303 306 305 308 311 312 312 313 316 317 319 319 319 319 318 319 318 316 313 308 306 306 305 305 306 307 306 304 301 300 298 298 296 296 296 294 293 291
294 299 296 295 291 288 289 285 289 295 299 302 303 305 305 309 309 310 313 318 319 319 317 318 319 319 319 319 317 311 307 305 305 305 305 305 304 303 302 300 298 298 297 296 295 294 293 293 291
300 297 295 293 290 283 288 287 286 291 297 303 305 305 306 308 311 314 315 319 320 320 318 318 319 319 318 318 315 311 307 305 304 304 303 301 300 300 300 300 297 297 298 295 293 292 292 291 291
296 291 283 282 281 282 291 288 290 295 297 299 303 305 306 310 313 316 316 319 320 319 318 319 319 317 317 316 312 310 306 305 305 303 300 298 298 299 299 299 299 296 293 292 292 291 289 289 289
294 291 284 280 280 282 291 286 291 298 301 301 302 304 308 310 315 316 318 318 319 319 318 318 317 311 310 309 308 304 303 302 301 300 299 300 301 298 299 299 296 294 292 291 290 289 289 290 289
293 290 294 287 286 282 285 289 295 298 299 301 304 305 307 311 315 316 317 317 318 317 317 313 310 306 304 303 302 301 303 302 302 303 303 301 301 301 298 295 293 292 291 291 290 289 289 288 289
295 298 288 287 280 278 282 284 286 293 296 299 301 305 307 311 314 316 315 315 315 315 314 309 309 305 302 302 303 302 302 302 303 304 302 302 300 297 295 293 292 292 291 291 292 290 289 288 287
293 291 291 290 285 280 278 283 292 296 298 300 300 305 307 308 312 314 314 314 313 311 309 309 307 303 301 301 301 302 302 302 302 301 300 299 297 295 294 293 291 291 291 292 290 289 289 288 287
295 293 292 283 284 284 282 283 294 297 299 301 301 304 306 308 310 312 313 311 309 308 308 308 307 303 301 301 299 300 301 300 300 301 299 296 292 294 292 292 292 292 292 291 289 288 289 287 286

GFSSGP_sfc_thetae_066.txt.gz
Theta_e
316 308 306 299 291 287 284 287 295 296 299 319 322 319 315 320 314 306 330 334 342 345 346 345 345 347 347 347 348 348 348 348 345 344 342 341 340 339 338 339 339 338 335 333 335 337 340 340 339
309 310 302 292 286 280 282 288 297 309 314 321 321 321 320 318 328 328 327 337 344 345 345 344 345 346 347 347 347 347 347 346 345 342 340 340 338 337 337 338 338 337 336 335 335 337 340 339 340
308 303 296 287 281 281 283 288 304 311 315 316 315 319 319 321 329 330 336 340 344 343 343 344 343 344 346 346 347 346 346 345 343 342 340 339 337 336 336 339 337 337 336 334 334 336 338 338 338
299 296 291 285 282 287 288 302 308 312 312 315 315 311 324 332 331 334 339 342 342 341 343 341 341 344 346 347 347 346 345 343 342 341 341 338 335 335 336 338 337 337 335 332 332 333 333 334 336
295 292 285 282 282 288 308 309 309 308 310 311 313 311 314 331 332 335 338 340 340 340 339 340 340 343 345 346 346 345 344 342 341 340 339 338 337 335 337 337 337 336 335 333 332 332 333 333 333
294 289 283 281 284 296 308 311 311 309 310 310 312 311 318 331 332 335 336 335 339 337 337 339 341 341 341 340 341 342 342 340 340 340 338 338 337 337 337 336 335 335 335 334 334 334 333 332 332
291 288 283 283 286 289 306 311 308 307 307 310 314 308 321 328 333 334 334 333 333 334 334 335 336 337 337 338 339 339 339 338 338 338 337 336 335 335 335 335 335 334 334 334 334 333 333 331 330
292 289 284 286 286 289 306 310 313 310 306 315 317 309 316 328 332 332 332 332 331 332 333 333 334 334 334 335 336 336 336 336 335 335 334 332 333 333 334 333 334 334 334 334 333 330 331 329 327
292 288 284 287 288 292 308 307 311 314 310 315 320 316 325 331 331 329 328 328 329 331 332 333 333 331 333 333 334 334 335 334 333 332 331 327 326 325 326 331 333 334 333 332 329 327 324 323 323
291 285 287 293 294 301 306 307 306 307 308 313 316 325 328 329 328 325 324 324 326 323 325 327 329 329 332 332 329 328 330 327 327 325 324 323 323 324 326 329 332 332 329 327 324 322 319 313 309
289 289 292 294 305 306 304 305 308 304 301 309 315 320 325 324 324 323 324 324 320 322 324 326 328 329 329 328 325 324 323 323 324 322 323 324 325 324 325 324 323 318 319 313 312 309 308 306 306
290 294 294 301 305 305 303 305 305 301 308 315 319 322 322 321 322 322 321 320 318 320 322 322 323 327 327 326 323 322 321 322 321 322 324 325 324 322 319 318 316 313 311 309 307 306 304 304 303
291 297 302 306 306 305 307 302 303 306 315 320 320 320 318 320 321 322 323 322 320 320 320 319 321 326 325 322 320 320 321 322 324 324 326 324 321 316 316 313 311 309 307 305 303 302 302 301 300
300 300 300 303 305 305 301 301 302 308 319 318 318 316 319 319 319 320 321 320 319 319 321 324 326 324 323 320 320 321 324 325 325 325 324 323 319 315 313 311 309 307 305 303 301 300 298 297 298
301 299 300 300 301 300 301 297 301 310 315 314 317 317 318 319 319 318 319 318 319 321 324 323 323 321 322 320 322 322 324 324 324 323 323 320 317 314 310 308 306 304 305 303 301 299 298 297 297
297 295 292 297 300 301 300 292 304 309 312 308 312 316 316 316 316 318 319 318 318 320 321 321 325 323 321 320 321 321 322 320 320 319 319 318 314 310 309 309 307 307 305 303 301 298 296 295 295
291 286 289 295 300 299 297 294 302 307 313 311 311 314 316 315 315 316 319 319 321 322 320 319 322 319 318 317 317 317 317 318 317 317 316 314 310 309 311 308 305 305 304 303 302 299 296 294 294
287 288 290 290 295 297 293 293 301 305 311 312 312 312 314 314 314 319 321 322 320 319 318 321 319 316 315 314 314 313 313 313 313 312 310 309 308 308 307 306 304 304 302 298 297 296 295 295 294
295 292 290 292 296 295 295 294 301 304 306 309 310 311 312 314 317 318 319 319 317 316 319 318 316 315 316 314 311 310 310 310 310 311 311 311 309 307 306 303 301 301 299 297 296 295 294 294 293
295 293 291 294 295 295 292 293 296 304 307 308 311 311 312 312 311 313 316 316 314 315 318 318 317 316 316 316 312 312 310 310 308 310 310 309 309 307 304 302 300 299 297 297 296 295 294 293 293
293 291 290 292 292 293 292 289 293 300 306 306 310 313 314 312 311 310 314 316 314 315 317 319 317 317 316 315 314 312 312 308 307 306 306 307 307 306 303 301 299 298 297 296 295 294 294 292 292
289 296 295 293 288 284 289 283 290 296 301 303 306 309 312 313 312 311 313 314 314 316 317 319 318 317 316 316 314 313 311 307 307 306 305 305 306 304 303 301 298 298 297 297 296 298 294 293 292
293 296 295 293 289 287 286 284 288 296 298 301 303 307 310 313 312 311 312 315 315 315 316 317 317 317 317 317 316 315 313 307 305 304 304 303 302 302 301 299 298 300 297 297 296 294 293 293 291
298 295 293 291 289 283 287 286 286 290 297 301 304 305 308 307 309 310 310 314 315 315 314 315 316 318 317 317 317 315 311 305 303 303 302 301 300 299 299 301 300 296 298 297 293 292 291 291 291
294 289 282 281 281 281 289 287 289 293 296 299 302 305 305 306 306 307 311 315 315 316 316 317 317 317 318 317 318 316 309 305 304 303 300 298 298 297 298 299 299 297 296 294 291 290 289 289 289
292 290 283 279 279 282 289 285 290 296 299 299 299 304 304 304 308 311 312 316 317 318 319 318 318 317 316 316 316 311 308 306 304 302 299 298 299 299 300 301 299 296 294 291 292 290 289 289 289
292 288 292 286 284 282 284 288 292 294 296 299 302 300 302 305 309 313 315 316 316 317 318 318 318 316 314 313 309 306 306 303 301 301 302 302 299 301 301 299 296 294 293 293 290 289 289 289 288
293 296 287 286 280 278 281 282 285 291 294 297 301 301 303 305 308 312 315 316 318 318 319 319 316 312 307 305 305 304 301 302 303 302 301 301 301 300 299 296 294 293 293 292 290 289 289 289 288
292 289 289 289 284 280 278 282 290 293 296 297 299 301 304 306 310 312 315 316 316 318 315 313 309 305 302 302 301 302 301 301 302 302 301 301 300 299 296 294 293 293 290 292 291 290 290 288 288
293 292 290 284 283 283 281 282 293 294 295 297 299 301 304 307 310 313 314 314 313 312 311 310 307 302 299 299 300 299 299 300 301 300 301 300 298 296 292 293 293 292 291 291 290 289 289 288 287

GFSSGP_sfc_thetae_069.txt.gz
Theta_e
321 312 313 307 299 297 293 294 300 298 302 321 324 321 319 321 317 313 334 336 343 343 344 346 346 347 347 347 348 348 349 348 346 344 344 343 341 341 340 340 339 339 337 339 341 342 340 342 341
315 313 309 301 295 291 292 295 299 308 314 323 322 323 322 319 328 327 329 341 344 344 344 345 345 346 347 347 347 348 347 345 345 343 343 341 340 340 341 340 338 339 339 339 342 343 342 341 342
311 306 306 297 292 291 292 294 305 311 318 319 318 323 322 322 329 328 337 343 345 344 343 344 344 344 346 346 346 346 346 345 343 342 341 340 340 340 339 338 338 339 337 340 342 341 341 341 340
306 305 299 296 291 294 294 299 312 314 317 319 319 316 327 334 333 335 340 344 343 342 344 343 342 344 346 346 346 345 344 342 341 341 340 339 339 338 339 338 337 337 337 337 339 338 338 339 338
303 301 296 292 291 293 300 311 313 311 314 315 316 315 321 330 336 337 341 344 342 342 344 345 340 343 346 347 346 344 342 341 340 339 338 339 339 339 338 337 336 336 336 334 334 335 336 336 335
302 298 293 291 291 295 308 314 313 312 313 316 317 317 320 332 334 336 340 342 342 341 344 344 341 342 343 343 343 341 340 340 339 338 338 339 339 338 337 336 336 336 335 335 335 334 334 333 332
301 297 293 291 292 294 303 315 312 311 312 314 319 314 323 328 334 335 336 338 339 340 339 337 340 339 338 339 339 338 338 338 337 337 337 336 336 335 335 335 335 335 335 335 334 333 332 332 331
300 299 292 293 292 294 305 313 315 313 311 319 320 313 316 328 333 332 333 332 334 336 335 334 334 334 335 334 336 336 336 335 334 334 333 333 333 333 334 334 335 335 334 334 332 330 329 328 328
299 297 293 294 293 297 311 311 315 317 314 319 321 320 326 331 332 330 329 329 330 332 332 331 329 328 329 331 334 336 335 333 333 332 331 329 330 330 331 332 334 333 332 330 327 324 322 323 321
299 295 295 298 298 304 310 311 311 312 312 315 318 325 329 329 328 326 326 325 326 326 328 329 327 329 328 333 333 334 333 331 331 330 330 328 331 331 331 332 332 329 327 324 322 319 318 317 314
297 297 297 298 301 310 308 309 312 310 308 313 316 322 326 326 326 326 325 323 322 324 324 325 326 329 330 331 330 329 329 329 329 329 329 331 331 332 333 333 327 322 320 315 316 315 313 313 312
296 298 298 302 310 308 307 311 309 309 312 318 322 324 324 323 323 323 320 319 321 322 321 323 326 328 330 329 327 326 326 327 327 329 332 332 331 332 329 325 321 319 317 315 315 313 312 311 310
296 301 306 307 309 309 310 307 308 312 319 320 323 323 322 322 322 321 321 320 319 319 321 322 324 327 329 327 325 325 326 327 329 331 334 334 330 324 322 320 319 317 315 313 312 311 309 309 308
303 305 307 309 309 309 305 306 307 313 318 318 319 318 319 320 321 319 320 318 316 318 319 320 322 327 328 325 325 325 328 328 329 330 332 331 325 323 321 318 316 314 313 312 311 309 307 306 307
306 303 304 306 307 306 307 303 306 315 317 317 317 317 319 320 321 320 319 319 320 319 319 319 323 329 328 325 325 327 328 330 330 331 331 327 324 322 320 317 314 313 312 311 309 308 308 306 305
301 300 298 302 305 305 305 298 308 316 314 314 316 316 317 319 319 321 321 321 322 322 320 322 326 329 328 326 326 328 330 330 330 330 329 326 324 321 318 315 314 314 312 309 309 308 306 305 305
296 293 295 298 304 303 302 299 307 315 313 309 314 316 316 317 318 320 321 322 321 323 324 326 328 327 327 326 327 329 331 329 328 328 326 321 320 319 318 315 315 314 311 311 308 307 307 305 305
293 293 294 295 300 302 300 300 306 311 314 311 313 315 316 316 317 319 320 322 322 324 326 326 327 326 325 325 326 326 327 326 326 325 323 321 317 317 316 315 314 313 310 308 307 307 306 306 306
297 296 295 297 300 298 298 299 304 309 312 312 313 313 315 316 319 319 322 323 323 325 324 326 325 324 323 322 323 322 323 322 322 321 319 316 315 315 317 314 312 311 309 308 308 307 306 305 306
298 296 295 298 299 298 297 298 302 307 310 312 313 314 314 316 318 319 321 323 324 323 324 325 325 324 324 325 324 323 322 320 321 319 316 314 314 315 314 312 310 310 308 308 308 307 305 306 305
297 295 295 295 297 298 296 295 297 303 308 312 314 316 317 316 317 319 319 322 323 324 323 324 325 324 324 324 321 318 318 316 315 315 312 314 314 314 313 311 310 309 309 307 307 306 305 303 304
294 299 297 296 294 291 295 289 294 299 303 307 311 314 316 318 318 318 319 320 322 323 324 325 324 323 323 322 321 319 317 313 315 313 312 313 315 313 311 310 310 309 308 307 307 306 305 304 302
297 299 298 297 294 293 292 291 295 298 298 303 308 311 315 318 319 317 317 319 322 323 322 324 324 323 322 322 322 320 317 317 316 312 313 313 313 312 310 310 309 308 307 306 306 305 304 305 301
300 298 296 295 294 289 291 291 293 296 299 303 306 310 313 316 319 320 319 319 320 322 322 323 323 322 322 322 321 320 317 315 313 312 311 311 311 310 309 308 307 306 305 302 302 302 301 301 301
298 295 289 287 287 287 293 291 295 299 300 301 304 308 312 315 316 318 316 316 319 319 321 321 322 320 322 321 321 321 318 316 315 312 312 310 309 307 307 307 304 305 299 298 298 300 300 300 299
296 295 290 282 283 287 291 289 295 301 303 304 305 305 309 312 314 315 317 317 319 320 321 321 320 321 322 321 321 321 319 315 315 314 313 311 310 308 306 306 303 300 299 298 298 298 300 300 300
296 293 296 289 288 287 290 293 298 299 301 304 306 309 306 309 311 313 315 318 319 320 321 321 321 321 321 320 322 321 317 315 315 314 313 311 308 305 306 306 300 299 298 299 300 300 299 300 300
299 300 292 291 283 282 287 287 291 297 299 302 305 308 308 307 310 313 315 318 320 322 322 323 323 322 320 321 322 320 318 318 315 312 308 307 306 306 306 301 299 298 299 300 299 299 299 298 299
296 294 293 293 290 286 284 289 297 298 300 301 304 307 309 310 311 313 317 319 321 322 323 322 322 320 319 320 320 318 316 314 311 309 306 306 306 302 301 300 300 299 299 299 298 298 298 297 297
298 296 296 291 287 288 287 288 299 300 300 300 303 305 308 312 314 316 318 320 320 321 321 321 319 317 317 314 313 310 308 308 308 306 306 306 302 304 300 299 299 298 298 298 298 297 297 296 295

GFSSGP_sfc_thetae_072.txt.gz
Theta_e
325 319 319 314 302 301 298 298 304 303 307 312 318 323 322 325 319 315 339 340 344 345 343 347 346 347 348 348 349 349 349 349 347 345 344 342 342 341 341 341 341 342 340 341 343 345 344 343 342
318 317 317 311 298 296 297 301 301 309 313 321 322 323 322 319 331 331 334 341 347 344 342 343 345 346 347 347 348 348 348 347 345 344 342 342 342 342 341 340 341 342 343 343 342 344 343 342 342
317 315 310 304 300 295 297 301 304 314 317 320 314 322 324 324 330 333 340 343 345 343 341 343 344 345 346 347 347 346 346 344 344 342 342 342 342 341 340 341 341 342 343 344 344 343 342 342 340
314 312 309 299 297 299 300 304 312 316 318 322 322 313 328 334 334 336 341 346 344 343 341 343 342 344 346 347 346 345 344 342 341 340 341 342 341 340 340 339 339 342 343 341 343 342 341 339 338
314 309 300 298 297 300 303 307 314 315 317 319 320 317 317 331 339 339 342 344 341 342 343 346 340 343 345 347 345 343 342 341 339 339 340 340 340 340 339 338 338 339 340 339 340 340 339 337 335
307 307 298 296 297 301 303 312 314 316 317 319 319 317 315 332 335 339 343 346 346 345 346 345 342 342 343 344 342 341 340 339 338 338 339 340 339 338 338 338 337 337 337 337 338 337 336 334 333
305 303 298 297 298 302 304 317 314 315 315 317 323 317 325 330 336 340 343 343 343 342 344 344 342 341 338 338 338 338 338 337 337 338 337 337 336 335 336 336 336 336 336 335 334 334 333 332 330
308 304 298 299 299 300 308 315 319 316 315 324 324 317 320 329 336 338 339 338 339 335 337 335 333 333 333 335 336 336 335 335 335 335 334 333 333 334 335 334 335 336 335 332 331 332 330 327 326
309 301 298 298 300 302 311 312 318 321 318 321 324 323 330 333 334 334 332 332 332 332 332 329 328 327 330 332 336 335 335 333 332 332 331 328 327 328 330 333 334 334 332 329 327 326 324 322 320
305 301 299 303 304 303 309 313 315 315 315 317 321 326 333 331 330 326 326 326 326 325 325 327 326 323 322 326 331 334 330 328 328 329 330 327 330 330 331 331 330 329 327 324 322 322 322 324 323
306 301 304 305 306 307 309 312 315 313 311 315 317 324 327 329 328 327 326 326 326 326 325 325 324 324 323 323 325 332 330 330 329 330 329 332 332 332 333 330 328 327 326 321 321 322 322 321 321
303 305 305 306 311 311 311 314 312 314 316 322 322 326 326 325 324 324 322 322 323 324 324 326 324 324 324 323 324 329 328 329 328 330 332 333 333 334 335 332 329 325 325 323 322 321 320 318 317
304 305 311 309 312 313 312 310 311 314 321 323 323 325 323 323 322 322 321 321 321 319 320 319 323 325 326 328 328 328 327 328 329 331 334 335 335 336 333 330 325 325 323 324 322 320 317 315 313
309 310 311 313 313 312 309 310 312 316 319 319 320 320 322 322 321 320 319 318 317 318 319 321 319 323 324 325 329 328 328 328 330 333 337 339 337 333 327 326 326 323 324 322 319 316 313 312 312
311 307 310 311 311 309 312 308 308 317 319 318 318 318 318 321 321 317 320 318 318 319 320 322 323 327 329 329 328 327 328 329 332 334 337 333 331 330 330 327 325 322 321 319 316 314 313 311 310
306 307 301 308 309 309 309 301 311 317 317 315 318 319 317 319 319 320 318 322 322 324 323 327 324 330 332 329 327 326 329 333 334 336 337 334 332 331 328 325 322 320 318 316 315 313 311 311 311
304 297 298 301 308 307 306 302 312 316 313 312 316 316 318 319 318 323 323 321 324 323 323 322 326 331 333 332 328 329 333 335 335 335 336 334 331 329 327 324 321 320 317 316 313 312 314 311 312
296 297 298 299 304 305 304 303 310 315 313 313 313 316 318 319 320 320 322 326 326 323 323 325 329 331 334 332 331 332 333 333 333 334 334 331 329 326 325 323 321 319 317 314 312 312 313 313 312
301 299 298 301 304 303 302 303 307 314 314 312 313 314 318 318 321 322 324 324 325 325 325 328 330 333 333 330 326 327 328 329 331 331 331 328 320 324 325 322 320 318 316 314 314 314 312 313 314
301 299 299 302 303 302 303 302 306 312 314 315 315 315 316 319 318 320 322 324 324 325 327 328 330 332 332 328 327 330 331 328 330 331 326 324 322 323 320 320 318 317 315 314 314 313 313 314 313
301 299 299 298 302 304 302 300 303 308 313 315 317 318 319 318 319 319 321 323 324 324 326 327 330 331 332 331 328 330 330 328 327 327 321 319 318 320 320 320 318 317 315 313 313 313 311 310 311
298 303 302 300 299 295 301 292 300 305 307 311 315 318 319 320 320 321 321 323 325 326 327 328 329 331 332 333 329 327 325 324 326 324 321 317 318 319 319 318 318 317 314 314 313 313 312 310 307
300 303 302 301 300 298 298 295 299 303 302 306 312 316 320 322 322 321 322 324 325 328 329 331 331 332 333 333 331 329 327 327 324 317 315 317 318 320 318 318 317 316 314 314 312 311 310 309 305
304 302 302 302 300 292 297 296 298 300 302 305 309 312 318 321 324 324 324 324 325 329 330 330 329 329 330 330 330 329 328 324 319 315 315 317 319 319 318 317 317 315 313 312 311 307 305 305 304
303 300 293 291 291 290 298 295 298 303 305 307 308 310 315 320 322 324 324 324 324 326 328 329 329 328 330 329 329 327 326 325 321 317 316 318 316 315 316 316 315 312 312 304 301 302 305 304 303
301 300 294 285 288 291 296 292 298 305 308 309 311 312 313 316 320 323 325 326 325 325 327 328 328 327 329 329 327 327 327 326 323 320 319 318 317 317 317 315 313 312 301 301 302 303 305 305 303
301 297 301 294 295 292 294 298 302 304 304 308 310 312 314 314 317 320 324 327 326 326 327 328 327 328 327 326 327 326 326 324 323 322 324 321 320 317 315 313 310 304 301 302 302 304 304 304 303
303 305 295 297 286 285 291 293 295 299 302 306 306 308 314 314 315 318 320 324 326 328 328 329 328 327 328 328 326 323 326 326 322 323 323 321 318 314 312 309 304 301 301 303 304 304 304 303 303
300 299 299 298 296 289 287 293 302 301 303 305 307 310 312 316 316 317 319 322 325 327 328 328 328 327 328 327 325 323 324 322 322 320 318 316 313 309 307 304 304 309 305 304 304 303 302 301 301
304 301 301 293 292 295 293 292 305 306 307 307 308 310 312 314 318 319 321 322 323 326 327 327 328 327 328 327 324 323 319 315 311 311 310 310 307 306 305 306 306 304 303 303 303 301 301 300 300

GFSSGP_sfc_thetae_078.txt.gz
Theta_e
327 322 321 314 300 300 296 298 304 303 304 311 312 310 309 315 314 311 324 328 339 342 348 349 348 349 349 349 349 349 349 349 347 346 345 344 344 344 344 346 347 348 348 346 344 343 340 338 337
324 323 315 307 297 294 295 302 301 305 313 315 314 313 311 311 317 319 321 327 325 342 347 349 346 348 348 348 348 348 349 347 345 344 343 343 343 343 344 345 346 347 347 344 344 341 339 338 338
319 318 307 304 300 295 296 302 304 307 314 312 309 314 312 314 323 327 335 335 333 340 345 348 345 346 347 347 347 347 346 344 343 342 343 343 344 344 345 344 344 347 347 344 343 341 339 338 337
315 312 309 299 296 300 301 305 307 309 313 313 312 310 325 330 322 323 328 340 340 339 345 343 343 345 345 346 346 346 344 342 341 342 342 343 344 344 345 345 345 345 347 344 342 340 337 336 334
314 308 300 298 298 302 306 308 309 306 310 308 309 307 318 329 331 333 340 342 340 339 344 345 341 343 344 346 345 343 341 341 341 341 341 342 343 344 344 343 344 345 345 343 340 337 336 335 333
306 307 297 296 299 304 308 310 313 310 310 309 305 312 316 326 324 330 342 344 344 341 344 344 343 342 343 343 342 340 340 340 340 339 340 341 340 340 341 341 343 344 342 341 338 336 335 334 333
304 302 298 299 299 303 305 312 310 310 306 306 309 311 318 325 329 337 341 342 335 331 341 342 342 341 339 338 337 337 338 338 338 338 338 337 336 337 338 339 341 341 340 338 336 335 333 332 329
307 303 298 300 299 300 308 311 313 314 312 318 317 310 306 323 337 336 336 332 327 325 327 333 338 338 337 336 335 335 336 336 336 335 334 333 334 335 335 336 337 338 337 335 333 332 330 328 325
310 299 297 300 300 302 308 307 312 319 315 315 317 316 324 334 335 331 328 327 326 325 328 332 330 331 334 334 335 335 335 334 333 332 331 328 327 329 331 333 334 335 334 333 331 329 327 324 322
305 300 301 306 305 304 306 307 309 311 311 310 310 324 332 333 331 327 324 322 324 326 327 328 327 328 331 332 331 332 333 330 330 327 327 325 328 330 330 330 331 332 331 330 329 328 325 324 317
306 301 305 306 307 308 307 310 313 310 308 309 309 319 328 329 328 325 325 325 323 323 323 323 325 325 325 326 326 326 326 324 325 326 327 327 329 329 328 325 324 323 326 321 323 322 320 322 320
303 306 306 307 308 308 307 311 310 311 315 319 322 327 327 325 324 323 321 321 322 322 321 322 322 321 319 320 320 322 325 326 322 327 329 329 328 327 325 325 324 323 322 321 321 322 321 317 314
305 306 307 308 309 308 312 308 310 311 318 322 324 325 324 322 321 322 323 322 321 320 321 321 322 321 320 319 321 325 325 324 325 328 332 331 328 327 327 327 325 323 324 323 321 320 318 313 311
307 307 308 308 309 311 309 309 311 308 316 320 321 321 321 320 319 319 317 317 319 319 319 321 320 321 318 319 322 324 324 325 327 330 331 331 329 330 329 328 326 323 324 323 322 319 314 312 310
309 304 307 308 309 308 311 305 304 310 312 316 318 319 320 319 319 318 317 316 316 316 317 317 318 319 318 317 316 318 324 326 326 329 329 330 331 330 329 326 324 322 325 322 318 313 311 309 309
304 304 299 307 307 309 308 298 306 309 312 314 316 317 319 318 317 317 316 315 316 317 317 317 319 317 317 316 315 317 318 324 326 327 329 328 329 330 328 326 325 325 320 317 314 311 309 309 309
302 296 299 302 309 307 306 301 307 310 312 314 311 315 317 315 315 316 317 317 316 317 317 317 318 317 317 316 315 315 319 325 326 327 327 328 331 331 329 327 325 322 320 317 314 311 310 308 307
296 298 301 300 305 306 303 302 309 312 312 313 310 313 313 313 314 316 317 318 317 317 317 317 318 318 317 316 316 320 324 325 327 328 329 330 331 331 328 327 322 321 317 315 312 311 310 310 309
302 300 298 302 306 304 303 301 305 311 311 311 309 308 311 312 317 318 319 320 320 318 318 318 318 319 318 321 320 321 321 325 327 328 328 331 330 330 328 325 322 321 316 313 314 312 309 308 309
301 299 298 302 305 304 302 301 306 309 310 312 313 309 310 315 315 318 320 320 320 318 319 321 322 323 323 324 325 323 324 326 328 329 330 330 329 329 327 324 321 320 316 314 313 311 310 310 309
300 299 299 300 303 305 302 299 302 307 311 314 314 316 313 314 315 316 318 320 320 320 321 322 324 325 326 327 327 324 326 327 326 326 328 328 326 325 324 325 321 318 315 313 313 311 310 308 309
297 304 303 300 299 294 302 291 300 304 306 310 313 313 315 315 317 318 318 319 319 320 322 322 323 326 329 329 324 321 320 321 325 326 327 327 325 324 325 324 321 317 316 313 313 314 311 308 305
300 305 303 302 299 298 298 295 298 304 302 306 311 315 315 317 317 316 318 321 322 321 321 322 324 327 329 330 329 323 324 324 326 326 325 321 321 321 322 321 320 318 317 316 313 312 309 308 305
306 303 303 302 299 292 297 296 295 298 302 305 310 314 316 317 317 318 320 321 321 324 323 324 326 327 329 330 329 328 325 324 324 323 321 320 320 319 319 320 319 317 316 315 312 311 309 304 303
303 299 292 290 291 290 299 296 299 303 306 307 307 311 316 318 318 317 318 319 321 322 324 326 326 325 328 329 329 328 327 325 325 323 321 318 317 317 317 318 316 316 316 312 310 307 304 303 302
301 299 294 286 285 291 299 293 297 306 308 309 309 311 315 317 319 319 319 319 320 322 325 325 325 325 326 329 329 329 330 327 327 325 321 319 319 317 317 318 317 316 313 308 306 305 304 303 302
301 297 303 296 297 293 296 298 304 306 305 306 307 309 312 314 317 320 321 321 321 322 324 326 326 326 327 329 330 329 329 329 326 324 323 322 321 319 319 317 315 313 308 306 305 302 301 302 303
302 305 296 297 288 286 292 294 293 300 302 305 306 309 313 317 317 318 321 323 323 324 325 327 328 327 328 328 329 329 328 329 328 325 323 322 320 319 316 315 309 306 305 303 302 301 302 302 303
299 298 301 300 296 290 288 292 302 302 304 305 308 310 311 316 316 318 319 321 326 325 325 327 328 328 328 328 329 328 329 327 325 323 321 319 315 312 307 306 305 304 303 304 302 302 303 303 302
302 300 300 294 292 297 295 294 306 308 308 308 309 310 312 313 315 317 319 321 323 326 325 326 327 328 328 328 328 327 325 324 322 317 314 311 308 307 306 305 305 305 306 307 304 302 302 301 301

GFSSGP_sfc_thetae_081.txt.gz
Theta_e
320 318 313 307 293 290 287 292 298 297 305 311 309 307 308 313 313 306 324 329 334 330 332 347 348 349 349 349 349 349 349 348 348 347 346 346 346 347 348 348 347 347 347 342 340 337 338 339 339
317 318 311 300 288 283 289 296 297 305 307 311 311 311 309 311 318 319 322 329 334 335 332 342 346 348 348 348 348 348 348 347 346 345 345 345 346 347 348 347 346 346 346 341 339 336 337 336 338
318 314 299 293 289 288 288 299 302 309 309 308 306 310 317 315 323 328 329 330 331 330 333 330 344 345 347 347 347 347 346 344 344 343 344 344 345 347 348 347 345 345 345 340 338 336 336 336 335
308 303 299 291 290 294 299 304 307 309 309 309 308 306 314 322 324 325 327 331 327 328 330 331 341 343 346 347 347 345 344 342 342 342 344 345 345 346 346 346 345 345 345 339 337 335 334 334 334
306 299 289 288 292 298 304 305 308 306 308 307 308 305 311 321 327 328 332 336 329 332 335 341 341 343 346 347 346 343 342 341 341 342 342 344 345 345 344 344 344 344 342 338 335 334 335 333 332
298 297 288 289 293 300 303 305 310 310 308 308 309 307 313 323 323 333 333 330 328 326 338 343 342 343 344 344 342 340 340 340 340 341 342 344 344 343 344 343 343 342 340 338 336 335 334 332 330
296 291 289 290 293 298 302 308 308 308 308 308 311 305 314 318 328 331 328 327 326 327 326 328 342 342 340 338 338 338 338 338 339 339 339 339 339 340 342 343 342 341 338 336 335 334 332 329 328
299 294 289 291 293 295 304 307 310 311 307 314 314 309 309 318 331 330 326 325 326 327 326 326 332 338 337 336 336 336 336 336 336 336 335 335 336 337 339 339 339 338 336 335 333 332 329 327 325
301 290 288 292 296 297 305 306 308 315 312 313 315 312 318 330 329 326 326 323 323 325 324 326 329 334 335 335 336 335 335 334 333 333 332 329 330 331 333 336 336 336 334 333 332 330 327 325 322
295 289 292 300 299 298 303 308 305 309 311 310 312 317 320 329 326 323 321 320 321 322 323 328 331 331 333 334 333 332 331 328 327 326 324 328 328 329 332 333 333 333 332 331 330 328 326 321 314
298 293 299 301 302 302 301 306 312 309 309 312 310 317 326 326 325 324 323 323 322 325 326 327 329 331 330 331 330 327 327 326 324 323 325 328 328 325 325 325 325 325 327 322 324 321 317 316 313
296 301 301 301 303 304 300 305 309 311 312 318 323 323 323 323 321 322 322 322 321 321 322 323 323 322 320 321 322 322 323 322 322 323 326 326 325 322 321 320 319 319 318 317 316 317 314 310 309
301 301 304 305 307 306 307 305 308 305 314 320 323 323 321 321 321 322 321 322 320 318 319 319 319 318 317 317 317 317 317 318 322 326 328 326 324 323 322 320 320 319 318 318 316 316 313 308 307
303 303 302 304 305 306 307 306 306 307 313 319 321 319 320 320 319 319 319 318 319 318 318 318 318 318 318 318 319 322 322 323 325 327 327 328 327 324 324 321 321 320 320 319 317 316 309 307 306
305 299 301 304 305 303 305 300 302 309 311 315 318 317 317 318 318 316 318 317 318 318 318 318 317 318 318 317 319 322 324 325 324 325 327 326 327 326 325 322 319 319 319 319 317 312 308 306 306
300 298 292 302 305 306 303 295 307 307 311 310 314 316 315 316 316 316 316 316 316 316 316 317 319 317 316 315 316 319 320 320 322 323 325 324 328 327 323 322 319 320 317 313 309 307 305 303 303
296 290 293 299 306 304 301 297 305 309 309 309 311 313 313 314 314 315 316 316 317 316 315 315 316 315 316 315 315 317 318 319 321 321 324 322 323 327 324 322 321 318 315 312 310 308 306 305 304
291 293 298 298 301 303 300 298 303 306 309 307 310 309 311 312 313 315 315 317 317 316 316 316 315 315 315 314 313 314 314 319 322 321 324 323 324 326 326 324 319 319 314 311 309 306 307 305 305
299 297 295 298 304 301 299 297 304 307 308 306 306 309 309 310 314 315 315 315 316 316 315 315 314 314 313 311 309 311 312 319 320 322 325 325 325 326 325 321 319 316 312 309 309 306 305 304 305
300 296 293 298 303 301 297 296 302 307 306 305 304 305 307 310 311 313 313 314 314 313 314 315 314 314 313 312 311 314 317 319 322 324 324 325 325 325 324 319 318 317 312 309 308 307 306 306 305
298 294 295 295 299 299 297 294 298 304 308 306 306 309 311 311 311 312 314 314 313 312 313 314 315 315 315 316 317 319 318 320 321 322 323 325 325 324 324 321 318 316 312 308 307 307 307 304 305
294 300 300 299 294 288 296 286 294 301 305 306 305 307 310 311 314 314 315 314 313 313 315 314 315 315 317 320 320 319 317 318 320 320 321 323 322 322 322 322 319 316 312 310 309 310 307 305 303
297 302 301 300 294 291 293 290 293 299 299 305 307 306 309 312 313 313 315 316 316 314 315 316 319 320 321 322 322 321 316 320 320 321 321 320 320 320 321 320 317 315 311 310 311 309 307 305 301
304 300 299 298 294 286 293 294 290 293 300 303 309 310 309 312 313 314 315 317 317 316 317 318 319 321 323 324 324 321 318 320 320 321 320 318 316 316 318 319 317 314 313 311 311 308 305 303 302
299 294 286 285 285 284 297 294 294 300 302 304 309 310 311 312 313 314 314 315 316 316 317 318 317 318 324 324 324 324 321 320 320 320 320 316 316 315 316 317 315 315 314 311 310 308 304 302 300
296 295 287 282 281 287 297 290 294 302 305 303 304 311 312 313 314 314 315 316 317 317 316 316 317 317 322 324 324 325 322 322 321 322 321 319 317 316 315 315 314 314 312 310 308 306 303 303 301
297 292 298 292 294 289 292 295 302 304 302 301 301 303 309 312 313 314 315 317 318 318 318 317 318 320 322 323 325 325 325 322 322 322 321 318 317 316 314 315 314 310 308 308 305 304 302 302 302
299 301 292 292 284 283 290 291 292 297 299 301 300 303 307 308 313 314 315 316 318 319 320 321 322 322 322 322 325 325 325 324 322 321 319 318 317 317 315 312 308 306 304 303 302 301 302 302 301
296 295 298 297 292 283 281 286 298 298 300 300 301 303 305 308 308 310 316 317 318 319 320 321 321 321 322 322 326 326 325 323 322 321 319 318 317 314 311 306 304 304 305 304 303 302 302 302 301
300 296 296 289 289 291 288 287 301 301 301 302 302 304 303 304 308 309 310 313 318 318 319 320 322 322 323 324 324 326 325 323 322 321 319 315 310 308 306 306 306 306 304 304 303 302 303 302 300

GFSSGP_sfc_thetae_084.txt.gz
Theta_e
319 316 311 305 291 288 285 289 295 298 303 308 309 308 308 311 311 305 324 329 334 336 346 348 347 348 348 349 349 348 349 348 348 347 347 348 348 348 347 347 345 343 342 342 340 340 339 339 339
314 316 308 298 287 282 284 292 299 304 307 310 310 311 312 310 318 319 321 329 333 335 342 346 346 347 348 348 348 348 348 347 346 346 347 347 348 348 348 347 344 343 342 342 340 340 338 337 338
312 312 298 292 285 284 286 295 301 306 307 308 303 309 315 313 321 322 327 330 330 333 334 343 344 345 346 347 347 347 346 345 344 345 346 347 348 347 347 345 342 342 341 340 338 337 335 335 335
306 300 297 289 286 291 294 297 306 308 307 307 306 304 312 318 323 325 329 329 329 329 333 331 341 340 344 347 347 346 344 343 342 343 345 347 347 347 345 344 342 342 341 339 336 335 334 334 333
304 296 288 286 288 293 297 305 306 305 307 307 308 305 308 321 325 331 327 330 327 330 330 331 335 342 345 347 346 343 342 342 342 343 344 345 347 346 344 343 342 340 339 337 335 334 335 332 331
297 294 286 284 289 295 301 304 310 308 308 307 308 308 311 323 328 329 331 329 330 327 333 333 334 338 341 345 343 341 340 341 341 341 343 344 345 344 344 343 341 339 338 336 335 334 333 332 330
294 291 287 287 291 293 300 305 306 307 307 308 311 307 312 322 328 327 327 326 327 327 327 328 327 334 336 340 338 337 338 339 340 340 341 341 341 342 342 341 340 338 336 335 334 332 330 330 328
297 293 287 289 290 291 301 305 310 309 305 314 315 308 308 317 329 327 325 325 327 327 327 325 326 327 336 337 336 336 337 337 338 338 338 337 338 340 340 339 337 336 335 335 333 330 329 328 326
298 290 286 289 290 295 302 303 310 313 310 313 316 312 317 327 329 326 323 320 321 324 322 324 328 330 333 336 336 336 336 335 335 335 335 334 338 338 336 335 335 335 334 333 331 329 327 323 324
295 287 291 296 297 298 301 307 306 309 310 310 314 317 318 323 324 322 321 318 318 320 321 328 332 333 334 334 334 333 332 330 331 329 328 330 333 335 335 334 334 334 332 331 330 327 324 319 309
294 292 298 299 299 301 300 306 311 308 305 312 311 316 319 326 324 323 322 320 320 322 325 329 329 331 330 330 330 328 327 325 323 326 327 328 329 329 330 330 328 326 327 323 322 317 315 312 308
293 299 299 299 303 303 298 306 309 308 310 321 321 323 324 322 322 322 322 322 322 323 325 326 328 329 329 328 325 324 322 322 323 327 326 325 323 323 322 323 320 318 318 317 315 315 309 307 307
298 299 302 304 305 304 307 304 306 308 313 322 322 322 320 319 320 321 322 321 321 320 319 320 322 322 323 323 322 322 321 321 325 326 325 323 321 320 319 318 316 315 316 315 315 312 308 306 305
301 301 301 301 302 303 304 304 304 305 315 320 318 317 319 320 320 319 319 318 318 319 317 318 318 318 318 316 318 317 318 323 325 326 326 324 322 320 319 317 316 316 317 316 315 311 306 305 303
302 297 298 300 300 301 304 298 300 306 311 317 316 316 315 316 318 318 318 317 317 318 317 316 316 318 317 317 317 317 323 325 325 326 326 325 323 322 319 318 317 317 317 316 314 309 307 304 304
298 296 290 297 302 304 302 293 303 306 310 311 314 313 313 317 317 317 317 317 317 317 316 316 318 316 317 318 320 321 322 322 323 323 325 326 324 324 320 319 317 318 317 316 312 307 304 304 302
293 289 291 295 303 301 300 295 302 304 309 310 311 312 312 313 314 315 317 316 316 316 316 316 316 315 315 317 318 317 318 319 321 322 322 322 326 324 321 319 317 317 314 312 308 305 304 301 301
289 290 294 294 298 300 297 297 299 303 306 308 309 310 310 311 312 315 316 317 316 316 316 315 316 315 316 317 317 316 316 317 319 320 322 321 321 324 321 320 318 315 311 308 306 305 304 303 302
296 294 293 296 301 299 297 297 300 303 307 307 308 309 309 310 314 315 316 317 316 316 315 315 315 315 314 314 313 313 312 315 318 319 320 320 319 322 322 321 317 315 312 309 307 304 304 302 303
296 294 293 296 299 298 297 295 298 304 306 308 307 307 308 309 311 313 311 314 315 315 314 314 314 312 312 312 313 313 312 314 316 319 320 322 323 323 324 320 319 316 312 308 307 305 304 303 303
296 294 294 293 296 297 294 292 296 303 306 307 307 308 309 309 309 310 311 311 311 312 312 312 312 312 311 311 309 312 313 315 316 317 318 320 322 323 324 320 319 316 313 309 307 305 305 303 303
293 299 298 296 293 287 294 285 292 298 301 303 303 305 308 309 311 310 311 312 310 311 312 313 313 312 312 312 310 310 310 311 315 317 318 320 322 323 324 322 318 316 312 308 307 308 305 304 302
296 301 298 298 293 289 291 287 291 299 299 300 302 305 308 310 310 310 311 313 312 312 312 313 313 313 313 313 312 312 314 316 316 317 318 320 320 322 322 321 318 315 312 309 308 307 307 305 303
302 298 297 296 292 285 292 291 289 292 299 302 303 306 308 309 310 312 313 315 313 313 312 313 312 313 313 314 315 315 315 316 317 319 319 319 320 320 319 321 317 315 312 311 311 309 306 304 302
298 292 284 284 284 283 295 292 293 298 299 305 305 305 309 310 310 311 313 313 314 312 312 312 312 313 314 315 316 317 319 317 317 319 319 318 317 317 318 318 315 313 313 310 311 310 306 304 301
294 293 285 282 281 285 295 288 293 301 302 303 309 309 308 311 311 312 313 314 314 313 311 312 313 314 317 318 318 320 321 319 320 320 321 319 319 319 320 318 315 313 312 311 309 305 304 303 303
294 290 296 290 292 286 290 294 299 300 300 301 303 308 308 308 312 312 313 314 315 315 311 312 314 316 318 320 321 322 323 321 319 320 321 321 321 320 316 317 314 311 309 307 306 304 303 303 302
297 299 289 290 283 282 287 289 291 295 297 299 298 306 308 310 311 313 313 314 315 317 316 315 316 316 317 319 322 323 323 322 321 320 320 320 319 317 315 315 311 306 305 305 304 303 302 303 302
294 293 294 295 291 283 281 285 295 296 299 298 300 303 307 310 311 312 314 315 316 317 317 317 317 317 317 317 320 322 323 323 322 320 320 319 317 316 315 312 308 306 306 306 306 304 303 302 301
296 295 295 288 288 289 286 286 299 299 300 300 299 302 302 308 312 313 314 315 315 317 318 318 317 317 318 320 320 321 322 323 321 320 319 317 315 314 311 309 307 306 306 306 304 303 302 301 301

GFSSGP_sfc_thetae_087.txt.gz
Theta_e
317 316 309 302 290 287 284 288 292 295 300 306 307 306 306 310 309 300 322 329 336 342 345 346 346 348 348 348 348 348 349 349 349 348 348 348 347 346 345 343 341 343 343 340 341 340 340 338 337
313 313 304 294 286 282 285 289 293 301 306 309 309 308 311 308 317 318 319 327 334 336 345 345 345 346 347 347 347 348 349 349 348 348 347 347 347 346 344 342 341 343 344 341 341 341 340 339 338
309 308 297 290 284 283 285 291 296 304 307 306 302 308 312 311 322 324 325 329 332 333 335 344 343 344 346 347 347 346 346 346 346 346 347 347 347 346 344 342 341 343 344 341 340 338 336 335 336
304 299 295 288 285 289 291 295 297 306 306 306 305 303 311 317 323 325 326 328 329 330 331 340 341 340 341 342 344 346 345 344 345 345 346 347 347 346 343 341 340 342 342 338 336 333 332 334 335
301 294 287 284 286 291 295 297 302 304 305 306 307 304 306 321 325 331 327 328 325 327 329 333 337 339 340 342 343 343 344 343 343 344 345 346 346 344 342 340 339 339 339 338 334 332 335 335 334
295 292 285 283 286 293 295 299 307 306 306 306 307 307 309 323 327 330 331 327 328 328 328 331 336 339 339 339 341 341 340 341 341 343 344 344 343 342 341 340 338 338 337 335 333 332 334 333 332
294 290 286 284 289 291 295 303 305 305 306 307 310 306 312 322 327 328 327 327 326 327 328 327 326 335 338 338 338 338 338 340 340 342 342 342 341 340 340 339 338 337 335 333 332 330 331 332 332
295 292 287 287 288 289 295 303 308 307 305 313 313 307 306 318 327 326 326 326 327 327 327 325 327 330 334 336 336 335 336 338 339 340 339 338 339 338 338 336 335 335 334 332 331 329 330 331 330
295 289 285 288 289 292 297 301 309 311 308 311 315 312 318 327 326 324 320 320 322 324 325 325 323 324 331 333 334 335 336 337 338 338 337 336 338 337 333 333 333 334 333 331 329 327 328 328 327
293 287 290 294 294 295 299 304 307 307 309 309 312 317 317 324 324 322 321 318 318 320 320 325 329 328 324 332 332 332 332 335 336 337 337 337 337 334 332 332 333 333 331 330 327 324 320 315 313
292 291 295 298 299 297 296 304 308 305 304 311 310 315 315 324 322 322 321 320 317 318 322 328 326 328 327 325 329 329 331 331 331 333 334 335 335 333 330 328 326 326 325 320 317 315 308 306 306
291 296 296 298 300 301 298 305 307 306 307 319 320 317 322 322 323 322 321 320 319 321 324 325 324 327 327 330 329 328 327 326 328 329 331 332 331 329 328 324 321 320 317 314 313 310 306 305 305
294 297 299 301 301 302 305 304 304 308 316 320 322 322 321 320 320 321 322 322 322 321 321 322 325 326 326 325 324 323 323 325 327 327 328 329 327 325 324 318 316 316 314 314 309 307 306 304 303
298 298 299 299 300 301 302 302 303 305 317 318 318 317 318 318 318 318 320 319 320 318 318 319 319 325 325 324 322 321 321 324 325 325 324 325 325 322 321 315 314 314 313 313 310 306 304 303 303
299 295 297 299 298 300 301 296 299 303 317 316 315 314 317 315 318 318 319 318 318 318 318 317 317 319 320 320 318 318 322 325 324 324 323 322 322 321 319 315 315 314 314 313 309 305 303 302 302
296 294 289 296 299 301 299 293 300 305 315 312 313 312 313 315 316 317 319 318 318 317 315 317 318 317 318 316 318 322 323 323 324 324 324 323 322 319 318 316 314 315 314 313 309 305 303 301 300
291 287 289 294 299 298 297 295 297 303 310 310 310 310 311 311 312 316 317 317 317 316 316 315 316 317 317 318 318 319 319 321 322 323 323 323 324 321 319 317 315 315 314 312 309 304 303 300 299
287 288 291 291 295 297 295 296 298 302 307 308 311 310 307 308 310 315 316 316 317 317 316 316 316 316 317 316 316 316 317 318 320 321 322 323 324 323 319 316 315 314 312 309 306 303 302 301 300
293 291 290 294 298 296 296 295 299 301 303 305 309 309 305 307 312 315 316 316 315 315 315 315 314 316 316 315 314 314 314 316 317 319 321 320 322 323 319 317 315 313 312 310 305 303 302 301 301
293 291 291 294 298 295 295 294 294 300 303 306 308 306 305 307 310 313 315 314 314 314 314 314 315 315 315 314 313 313 314 315 316 319 319 321 319 321 321 318 316 313 310 307 305 304 302 302 302
293 291 291 291 296 295 293 291 294 299 304 307 307 307 307 306 307 311 312 313 314 313 313 314 314 313 314 314 313 312 313 314 314 317 317 318 320 320 322 321 319 316 313 309 306 304 304 302 301
290 297 296 294 291 287 292 284 290 295 300 304 305 305 306 307 308 310 310 310 311 313 312 312 312 312 310 310 310 310 309 309 312 312 317 315 319 319 321 321 319 315 312 308 307 306 304 303 301
294 299 296 295 292 287 289 286 289 297 297 300 302 304 305 308 308 309 309 310 311 312 311 311 311 311 311 310 309 308 308 308 312 314 315 315 318 321 321 321 318 316 313 311 308 306 306 307 304
300 296 295 293 290 284 290 289 287 290 297 300 303 303 305 308 308 309 310 311 310 311 310 310 311 311 311 310 310 308 309 311 312 314 314 315 316 318 319 320 317 317 314 310 309 309 309 308 306
295 290 283 281 282 282 292 290 291 296 298 302 303 304 305 308 309 309 308 309 310 309 310 311 311 311 312 310 310 310 310 312 313 314 315 315 315 315 317 317 316 315 314 312 311 310 308 307 304
291 291 284 280 279 283 293 287 292 299 301 301 306 306 306 307 309 309 310 310 312 311 310 310 311 311 312 311 311 311 312 313 315 315 316 317 317 318 318 317 318 316 313 311 308 307 306 305 304
291 288 294 287 289 284 287 292 297 299 299 298 303 304 304 308 308 309 310 312 312 313 312 311 311 311 312 312 312 312 313 314 315 317 318 318 319 319 318 318 317 314 312 310 307 305 305 304 304
295 297 288 288 282 281 285 287 289 295 295 297 299 304 305 308 310 310 310 312 314 314 314 313 312 312 312 313 313 313 314 316 317 318 318 319 320 319 317 315 315 312 309 308 307 306 305 304 303
291 291 292 291 287 283 280 284 295 296 298 296 296 303 306 306 309 311 312 313 314 315 314 313 312 312 312 314 315 316 317 319 320 320 319 319 319 316 315 314 314 310 308 307 307 305 305 304 303
294 293 293 287 286 286 284 285 297 297 297 298 298 299 301 308 309 311 312 313 313 314 315 313 312 312 314 316 317 317 319 320 320 320 320 319 317 316 315 313 311 310 308 307 307 304 304 304 302

GFSSGP_sfc_thetae_090.txt.gz
Theta_e
315 311 307 299 290 286 284 287 291 292 297 303 305 304 304 308 307 297 320 325 335 343 344 345 346 348 348 348 348 348 349 350 350 349 349 348 348 347 345 343 343 343 343 340 339 339 338 337 336
312 311 302 293 286 282 284 288 290 297 304 307 306 307 309 307 316 317 317 325 335 344 344 344 345 347 348 348 348 348 349 349 349 349 348 347 347 345 343 344 342 343 343 342 340 340 338 336 335
307 305 296 289 283 283 284 290 293 298 306 305 301 308 312 309 319 322 324 327 333 337 343 344 344 345 347 347 347 347 347 347 347 347 347 346 345 344 343 343 342 343 344 342 341 340 337 337 335
302 298 293 288 284 288 290 294 296 298 304 305 303 302 309 316 320 325 327 329 331 331 335 342 342 344 346 346 347 346 346 345 345 345 346 346 345 343 343 342 342 343 343 343 339 337 337 335 333
299 293 286 284 285 289 293 295 295 300 302 304 305 302 306 316 325 326 327 328 328 328 332 340 340 343 345 345 345 344 345 344 344 345 345 344 344 342 342 341 341 340 340 338 335 335 338 334 332
294 291 284 282 285 291 294 295 303 303 305 304 305 306 307 321 325 326 328 326 328 326 328 332 340 338 341 343 342 342 342 343 343 343 344 344 342 341 340 340 339 338 336 336 337 337 335 333 332
293 289 284 284 288 290 293 301 303 304 303 306 309 304 308 319 323 326 327 327 326 326 325 329 332 337 338 338 338 338 339 340 341 342 342 341 340 339 338 338 338 335 334 335 336 335 332 332 331
294 291 285 286 287 288 294 302 306 305 304 311 311 305 304 316 325 327 326 327 326 327 325 324 326 331 333 333 336 335 336 336 338 339 339 338 338 337 337 336 335 334 332 334 335 333 332 331 330
293 288 284 287 288 291 295 298 306 309 306 308 313 312 316 325 325 323 322 322 324 325 326 324 324 326 330 334 335 335 335 335 335 336 337 335 336 333 332 332 332 332 331 332 333 333 331 329 328
292 287 289 293 293 294 298 298 305 306 307 307 310 316 323 323 322 321 319 316 319 320 321 323 325 325 326 333 334 333 333 330 333 337 337 337 334 329 329 331 331 331 329 330 332 330 328 323 319
291 290 293 296 296 296 294 297 306 304 302 307 307 312 314 320 322 322 322 321 317 318 323 327 328 328 326 326 332 331 331 327 328 333 335 335 333 328 327 327 325 323 323 318 319 315 313 312 309
289 295 295 297 297 298 296 300 305 304 305 313 315 316 315 321 321 320 320 320 316 318 322 325 324 326 327 327 331 329 326 325 326 331 333 334 331 325 324 322 320 319 316 312 309 306 307 305 305
292 295 296 299 299 297 303 303 304 304 312 319 320 319 320 319 316 319 320 322 321 321 321 323 325 325 326 327 328 326 324 324 327 329 332 333 330 325 322 318 316 316 313 311 306 305 305 304 305
297 296 298 298 298 298 300 299 303 304 317 317 317 317 318 316 318 319 320 320 321 320 319 321 323 324 324 325 325 325 325 325 328 329 329 331 328 324 320 317 316 315 314 309 307 305 303 302 304
297 294 295 296 295 296 298 295 299 303 316 314 314 314 315 316 319 318 320 319 319 319 319 319 320 322 323 322 322 323 324 326 327 328 325 324 324 322 318 316 315 315 314 309 306 303 302 301 302
294 292 288 293 296 298 299 291 297 303 313 311 311 313 313 315 316 318 319 318 318 317 317 319 321 319 320 320 320 321 324 325 324 324 323 323 322 321 316 315 315 315 313 309 305 303 301 301 301
290 285 287 292 296 296 296 293 297 302 311 309 309 310 311 312 313 317 318 318 317 316 316 316 318 317 317 318 319 321 323 323 323 321 322 322 321 319 317 315 315 316 313 309 306 303 302 300 300
286 287 289 289 293 295 292 294 299 300 302 307 308 309 309 309 310 315 316 317 317 316 316 316 317 317 317 318 319 319 319 321 322 321 321 322 321 320 318 315 315 315 312 309 306 303 302 301 300
291 290 288 291 295 293 292 292 295 298 300 302 305 308 307 305 312 315 316 316 316 315 315 315 316 316 317 317 317 316 316 317 317 321 321 322 322 320 318 316 315 313 313 310 306 303 303 301 301
292 290 289 292 296 294 292 292 296 296 299 300 304 304 304 306 311 313 314 314 314 314 315 314 315 315 315 317 317 316 316 315 317 319 320 321 323 322 319 317 315 313 311 308 306 304 302 302 302
291 290 289 290 293 293 290 289 293 296 301 305 306 306 306 306 306 310 313 313 313 313 313 314 314 315 315 315 314 314 314 314 314 316 317 318 319 321 321 318 316 314 312 310 306 305 304 301 301
289 295 294 292 289 285 290 282 289 292 297 302 304 304 305 305 307 309 311 312 313 313 314 315 314 315 315 314 312 313 313 310 311 313 316 316 319 318 320 319 317 315 312 309 308 307 306 304 301
292 296 294 293 289 286 288 284 288 294 295 297 301 305 305 306 307 307 311 312 313 314 313 314 314 313 313 312 312 309 310 311 311 313 314 314 316 318 318 319 317 315 315 313 310 308 306 306 304
299 295 293 291 288 282 288 287 286 289 295 297 300 303 306 305 307 308 310 311 311 313 313 311 312 311 310 309 308 308 307 307 308 309 311 311 312 314 316 319 318 319 316 313 311 310 308 307 306
294 290 282 280 281 281 289 288 290 294 297 299 300 302 304 306 307 307 307 309 309 310 311 311 311 310 310 309 309 308 308 308 308 309 311 311 312 313 314 315 315 315 315 313 312 309 310 308 306
292 290 282 279 279 282 291 286 291 298 300 300 301 302 303 304 307 307 308 309 309 309 310 310 310 310 310 310 309 309 309 309 310 310 311 312 314 314 314 315 317 316 315 314 312 312 310 309 308
289 287 293 285 286 283 286 290 295 298 299 298 297 302 302 304 306 307 309 309 310 310 310 310 310 310 310 310 310 309 309 309 309 310 312 314 314 316 314 314 315 316 315 314 312 311 308 307 306
292 294 286 286 280 279 283 285 287 293 296 297 297 301 301 305 306 307 308 309 311 312 311 310 311 310 311 311 311 310 309 310 311 310 312 314 315 315 315 314 316 315 312 310 310 309 308 307 306
289 289 290 290 286 281 279 283 293 295 297 297 296 299 302 303 306 307 309 310 311 313 313 311 311 311 310 311 311 311 310 311 311 312 313 315 315 316 316 316 315 313 310 309 309 307 307 306 306
291 290 291 285 283 284 283 285 295 296 297 298 297 298 300 305 305 308 308 309 310 311 312 312 312 311 312 313 313 312 312 312 312 313 314 315 315 316 316 316 315 315 311 309 309 308 308 306 305

GFSSGP_sfc_thetae_093.txt.gz
Theta_e
322 315 314 307 299 298 294 295 297 298 302 309 309 308 309 312 309 304 326 334 338 343 344 347 347 348 348 349 350 350 351 351 350 350 349 349 349 348 347 346 345 345 344 341 340 339 338 338 336
317 314 309 302 297 293 295 296 296 301 306 310 309 309 310 311 318 321 324 330 340 346 346 344 346 347 348 348 349 350 351 350 350 349 349 348 347 346 345 344 343 343 343 340 339 338 337 335 334
312 308 306 299 294 293 294 297 300 301 307 309 307 312 315 313 321 325 328 331 341 346 347 345 345 345 347 347 348 349 349 348 348 348 348 347 346 345 344 343 342 342 343 340 339 337 335 334 334
308 307 301 298 293 296 297 300 300 300 308 309 308 306 312 319 324 328 330 333 339 340 346 343 342 344 347 347 348 348 347 346 346 346 347 346 345 345 344 342 342 343 343 343 339 336 335 334 332
306 303 297 294 293 296 298 300 300 301 306 308 308 307 310 318 326 331 332 331 336 337 335 342 341 343 346 347 347 346 346 345 345 345 344 343 344 344 342 342 342 342 343 342 339 339 335 333 332
303 301 295 292 293 296 299 301 302 304 307 308 307 308 312 324 327 330 331 333 333 335 333 333 341 342 341 345 344 343 343 343 343 343 342 342 342 341 341 341 341 341 339 338 339 335 334 333 332
301 298 294 292 293 296 299 305 307 306 308 309 312 308 314 320 328 329 329 331 332 333 332 331 334 335 337 337 339 340 341 341 341 341 340 339 339 339 340 340 339 337 337 337 338 334 333 332 330
301 300 293 294 294 295 300 304 309 308 306 314 315 310 311 319 327 329 328 328 329 329 332 331 334 333 336 337 336 338 339 339 340 340 338 337 337 338 338 337 336 336 338 338 336 333 332 331 329
301 298 294 294 293 298 300 301 308 313 311 312 315 315 318 326 327 326 326 326 328 328 328 330 330 335 337 336 338 336 339 339 339 339 336 335 340 339 337 334 334 336 336 335 334 332 331 329 328
301 296 296 299 299 299 302 300 302 309 310 311 313 318 325 325 323 322 323 324 325 326 326 328 331 330 329 334 336 335 340 344 342 342 339 338 339 339 334 332 332 333 334 333 332 331 330 327 327
299 297 299 300 301 301 300 301 307 309 306 311 311 314 321 322 323 323 324 323 322 324 326 327 329 331 330 330 332 332 330 335 336 342 337 337 336 334 334 332 328 331 333 332 330 329 326 326 325
297 299 300 301 301 301 301 305 307 309 309 318 316 322 318 319 321 323 324 325 322 321 325 328 328 328 331 329 332 330 328 329 336 337 338 332 331 332 332 328 326 326 329 330 328 324 324 322 323
297 299 300 301 301 302 303 304 305 308 313 321 323 319 318 322 324 324 325 324 322 322 324 327 327 328 328 327 327 329 327 328 331 332 335 332 330 329 329 327 324 322 322 323 323 322 319 318 317
301 299 301 302 303 302 302 303 306 308 313 319 320 319 321 321 321 322 322 322 322 322 323 324 325 326 325 326 327 328 327 328 329 331 330 333 332 328 327 325 322 320 320 321 320 318 316 313 313
302 298 300 301 302 300 302 299 302 308 318 317 317 316 318 318 319 320 322 321 322 321 321 321 324 325 323 324 327 326 325 325 328 330 331 332 330 327 326 323 322 320 317 316 316 314 313 312 311
299 298 294 298 300 302 302 297 304 306 314 315 316 316 316 316 316 318 320 320 321 320 320 321 322 321 322 323 324 324 325 326 328 329 329 329 329 327 325 323 322 321 317 315 313 312 311 311 311
295 290 292 295 301 301 302 299 303 308 312 312 315 315 315 315 314 318 320 320 319 319 318 318 321 319 319 320 324 324 325 325 327 327 325 326 327 326 323 323 321 321 317 314 312 311 312 310 311
290 291 292 294 299 299 298 298 302 303 308 310 314 315 313 313 313 316 318 319 318 318 317 318 318 319 319 321 321 323 323 323 324 325 324 325 326 325 323 322 322 321 317 314 312 312 311 311 310
295 293 293 296 299 297 297 296 300 304 303 305 311 314 312 313 314 316 317 317 317 317 317 317 316 318 318 318 318 319 319 321 321 322 323 324 325 324 323 322 322 321 318 316 314 312 311 309 310
296 294 293 296 298 297 297 297 301 302 303 305 307 311 313 312 312 314 314 316 315 315 317 317 316 317 318 319 319 319 319 320 321 322 323 323 324 323 321 321 321 321 319 317 314 313 310 310 311
295 293 294 293 296 298 296 295 298 301 303 306 308 311 314 312 311 313 314 314 315 315 316 316 316 316 318 319 318 316 316 316 320 321 321 324 324 321 322 322 321 321 320 318 315 313 312 310 309
290 297 296 294 293 288 296 288 295 300 301 303 307 309 311 312 312 313 314 314 314 316 316 316 317 316 316 317 317 317 315 315 317 320 320 320 323 322 322 321 321 321 321 319 318 317 315 314 309
294 298 296 296 292 292 292 290 294 297 298 302 305 309 311 312 313 312 314 316 316 317 316 316 316 316 316 317 317 316 314 316 314 317 320 318 319 319 320 322 321 323 321 322 320 317 315 316 315
300 297 296 295 293 286 291 291 292 295 299 302 305 307 310 311 312 313 315 316 315 316 316 316 315 314 315 314 316 317 315 315 313 314 315 317 318 320 320 320 322 324 324 322 320 320 317 316 315
297 293 286 285 285 285 292 290 294 299 302 303 305 306 310 312 312 312 312 313 313 313 315 315 315 314 313 313 314 314 315 316 316 316 317 316 317 318 320 322 323 324 324 324 323 321 318 317 316
293 292 286 280 283 286 293 289 294 303 305 305 306 307 309 311 312 312 313 313 313 313 313 314 314 315 315 314 314 315 315 315 316 317 317 318 319 319 321 322 323 324 324 324 323 322 320 319 314
292 289 295 288 289 287 290 294 299 302 303 303 304 304 307 309 312 313 313 313 313 312 312 312 313 313 314 315 315 314 315 315 314 316 317 317 318 319 321 322 322 322 323 323 323 322 321 320 319
294 297 288 289 282 280 286 289 291 297 300 303 303 304 307 308 310 312 313 314 314 315 313 312 313 312 314 316 316 315 315 315 316 316 316 317 319 320 320 321 321 322 322 322 321 321 321 317 317
291 290 292 292 289 284 283 288 299 300 303 302 305 305 305 309 310 311 313 314 315 316 316 314 313 315 315 316 316 316 315 315 316 316 317 318 319 319 319 320 321 321 322 320 319 318 317 311 311
294 292 292 286 285 289 288 288 300 302 303 303 304 305 304 310 311 312 313 314 314 315 315 315 315 315 316 317 316 316 317 315 316 316 317 319 318 321 321 320 320 321 320 317 313 312 313 310 310

GFSSGP_sfc_thetae_096.txt.gz
Theta_e
323 322 324 316 304 304 301 300 304 303 305 311 313 311 310 314 309 305 333 342 344 345 346 347 348 350 351 351 350 350 351 350 350 349 350 350 350 350 349 348 346 346 345 341 341 340 339 338 337
322 320 320 313 302 298 300 303 302 305 307 312 312 312 312 311 321 324 328 338 345 346 347 347 347 348 350 350 349 350 351 350 349 350 350 349 350 349 348 346 344 344 344 340 339 339 338 336 335
319 318 311 307 303 298 300 303 305 307 308 310 310 315 314 313 324 327 335 335 340 343 348 346 345 346 349 349 349 350 349 349 348 348 349 349 348 347 346 344 343 342 343 340 339 337 335 334 335
315 314 311 302 299 302 302 305 306 306 310 312 313 310 317 323 323 331 335 335 338 342 347 343 343 345 347 349 349 349 348 347 347 347 348 348 347 346 344 342 342 342 342 339 337 336 334 334 333
317 311 302 300 300 302 305 306 307 306 308 311 313 310 313 322 327 333 335 336 337 342 345 335 338 342 346 349 349 348 347 346 345 346 345 345 345 344 342 341 341 341 341 339 336 334 333 333 332
308 309 299 297 300 303 305 307 307 308 309 311 311 312 315 327 328 331 336 336 338 338 339 334 333 334 339 346 346 345 345 344 344 344 343 343 343 342 342 341 341 341 340 338 336 334 333 332 331
305 303 299 299 299 301 304 308 308 308 308 310 315 310 316 323 330 334 334 337 337 337 336 332 331 332 333 339 342 341 342 342 342 341 341 341 340 340 341 340 341 340 339 339 335 334 332 331 330
309 305 299 300 298 300 306 306 310 309 308 318 318 310 312 323 332 334 334 336 329 335 337 334 330 329 327 338 335 334 338 339 339 339 339 338 338 339 339 339 338 338 339 337 335 333 331 330 329
310 301 299 300 299 301 307 305 310 314 312 315 318 318 322 328 329 329 330 334 332 329 332 334 328 327 328 337 336 333 334 338 337 338 337 335 341 341 340 337 336 338 337 335 334 332 330 329 328
305 301 301 304 304 303 306 306 308 308 310 313 316 321 325 328 328 326 327 328 330 331 328 333 332 332 332 335 338 335 334 339 342 339 342 338 341 340 337 336 336 337 336 333 332 331 329 327 326
305 301 305 305 306 307 306 306 310 308 307 310 310 314 321 327 327 327 328 328 329 331 333 330 334 334 336 338 341 337 334 337 339 338 337 338 341 340 337 334 335 338 334 333 330 329 327 328 327
302 305 306 306 307 306 305 309 307 309 310 314 319 320 323 325 325 325 327 329 329 330 330 332 332 335 336 336 335 335 333 337 335 338 336 341 339 338 334 331 333 336 334 332 331 329 330 329 327
303 304 306 307 306 306 307 306 307 308 312 315 319 323 323 324 325 328 328 327 329 328 327 330 334 334 333 335 336 333 337 332 336 335 336 338 335 331 332 332 333 333 333 332 331 330 328 327 325
305 305 305 306 306 307 305 306 307 309 312 315 320 322 324 325 325 326 325 324 324 324 326 330 331 332 332 332 332 330 330 332 335 336 334 334 333 330 329 330 329 332 333 332 331 329 325 323 322
305 301 303 305 306 305 307 302 303 309 313 315 318 322 323 323 324 323 324 323 326 325 325 327 327 330 329 329 329 330 329 329 332 332 333 330 329 328 328 329 327 327 330 330 329 326 323 319 318
301 302 297 304 304 305 306 299 307 311 312 312 315 320 321 322 323 323 324 325 326 324 322 324 325 327 328 324 325 327 328 329 330 332 332 329 328 327 330 327 326 326 327 326 324 322 319 318 317
299 295 298 300 305 304 304 301 308 312 311 311 313 318 320 321 322 322 323 324 324 324 322 322 326 324 321 322 326 326 326 327 328 330 330 328 327 327 328 327 326 326 323 322 321 320 320 318 317
295 296 297 296 302 304 302 303 307 310 308 310 313 317 319 320 320 322 322 324 323 323 321 322 325 323 322 323 324 324 326 327 328 327 328 328 326 327 327 326 326 324 322 321 321 320 321 320 318
299 297 297 300 303 301 301 301 304 309 310 310 312 316 318 319 322 322 322 323 320 322 321 319 320 322 322 321 320 321 320 323 324 325 326 326 325 326 328 325 325 325 322 322 321 320 319 318 317
298 296 296 300 302 301 300 300 304 307 308 310 311 313 317 319 320 320 320 322 321 320 321 319 319 320 321 321 320 321 322 322 323 324 324 325 326 327 326 325 325 325 323 322 321 320 317 317 315
296 295 295 296 300 302 300 298 300 305 309 310 313 314 316 318 319 319 318 318 320 318 320 320 320 319 320 321 319 318 319 321 321 322 322 323 325 327 327 325 325 326 325 322 322 319 319 315 313
292 298 297 296 296 292 299 290 297 303 305 307 309 314 316 317 319 320 320 317 317 318 323 323 321 319 320 321 320 318 317 315 319 322 323 324 324 323 325 326 326 326 325 324 322 320 320 319 314
294 299 297 297 296 296 296 293 295 302 302 305 308 311 316 319 319 319 320 319 318 319 320 321 322 319 319 321 320 318 317 317 320 321 324 324 323 324 322 323 322 324 325 324 325 322 322 321 319
300 298 299 299 297 290 294 294 294 299 303 304 308 311 315 318 320 321 321 321 321 321 321 320 320 318 318 321 322 319 319 316 317 318 319 323 323 326 324 323 323 324 325 325 326 327 325 323 322
297 296 289 288 288 287 296 293 296 303 306 307 307 310 315 318 319 320 319 319 321 320 320 320 319 317 320 322 320 319 321 320 317 318 319 321 320 320 321 323 323 323 325 326 327 327 326 326 323
294 295 288 283 286 290 296 291 297 305 308 309 311 312 314 317 319 320 320 320 320 321 319 319 319 319 318 316 318 320 322 319 320 322 321 321 320 321 324 324 323 323 322 327 328 328 327 327 326
294 291 297 291 293 289 294 298 303 305 306 308 309 309 312 316 319 320 321 321 320 321 320 319 320 318 319 319 318 318 321 319 320 322 322 321 322 322 324 325 325 325 325 326 327 326 326 327 326
296 299 290 293 284 283 290 292 295 299 302 306 308 309 311 315 317 320 321 321 321 321 322 321 321 320 321 320 321 320 320 321 321 322 321 322 322 322 322 323 324 324 324 325 325 325 325 324 326
292 292 293 294 293 286 286 291 302 302 303 305 308 310 311 315 316 319 321 322 322 321 321 319 319 320 320 322 322 322 321 321 322 321 321 321 322 322 322 322 323 323 323 324 325 324 324 323 324
298 295 294 289 288 292 291 291 304 305 306 308 309 310 311 314 317 318 320 321 321 321 321 319 316 318 320 321 322 322 323 322 322 322 321 322 321 323 322 323 322 322 322 324 325 323 322 322 321

GFSSGP_sfc_thetae_102.txt.gz
Theta_e
324 322 319 317 304 303 300 303 307 305 305 311 312 309 307 309 306 304 334 342 344 345 347 347 349 352 350 350 351 350 351 351 351 351 350 350 349 349 348 347 347 346 346 343 342 341 340 340 340
320 320 318 312 301 297 300 306 304 306 309 312 311 310 309 308 317 321 332 342 345 343 348 347 347 350 351 350 350 350 351 350 350 350 350 349 349 348 348 347 345 344 345 342 341 340 339 338 340
321 323 310 306 302 298 300 305 306 308 310 309 308 312 311 310 320 327 336 340 341 342 345 350 346 347 350 350 349 349 350 349 349 349 347 347 347 348 348 345 343 344 345 341 340 339 338 337 337
317 313 309 300 298 303 305 307 308 307 309 311 311 307 313 320 319 331 336 335 336 340 345 342 343 345 348 348 349 349 347 348 347 345 342 347 346 348 346 343 343 343 343 339 339 338 336 336 335
315 309 301 300 301 305 308 309 309 306 308 309 310 307 310 318 331 334 335 336 338 344 346 347 338 342 347 349 348 348 347 346 346 346 345 345 344 345 344 342 341 341 341 339 336 335 334 334 333
307 308 298 297 301 306 308 310 308 308 309 309 309 309 311 326 327 332 338 338 342 344 348 348 338 339 343 346 346 344 345 343 345 345 344 342 342 341 341 341 341 339 338 337 336 334 333 333 332
304 304 300 301 301 303 306 311 308 308 308 309 312 308 313 324 333 337 338 342 344 344 344 344 343 339 337 334 336 334 332 330 341 342 339 337 338 339 340 340 339 338 336 336 334 333 332 332 330
308 305 300 301 300 302 308 309 311 308 307 314 314 307 309 329 335 336 337 339 341 340 341 341 339 337 335 337 330 330 331 329 326 340 338 338 338 338 339 338 337 337 335 335 333 332 331 330 328
311 301 298 300 302 305 309 306 311 312 309 311 313 313 318 327 332 332 333 336 337 337 338 339 337 335 335 333 332 330 330 330 322 338 337 336 337 337 337 336 335 336 334 333 332 331 329 327 326
305 300 300 305 306 306 307 307 308 308 308 308 312 316 320 326 327 327 328 329 334 335 335 338 337 334 333 332 329 328 327 326 322 337 337 337 337 337 336 334 334 334 333 332 331 329 327 324 319
305 300 304 305 308 308 307 306 309 306 304 308 309 312 318 324 326 327 329 330 332 337 336 335 336 334 329 331 328 329 327 326 328 335 335 336 337 335 336 334 331 330 330 327 326 324 319 317 317
302 305 306 306 308 307 306 308 306 307 307 311 312 313 315 320 323 327 329 331 331 334 334 335 335 331 330 332 328 330 329 327 329 336 336 336 334 334 334 333 329 326 324 323 321 319 320 319 319
304 305 307 308 308 308 309 306 306 306 310 312 312 313 315 320 322 327 331 335 334 331 332 333 335 334 333 332 331 331 328 326 327 332 335 334 333 334 334 332 331 324 325 323 320 320 323 322 320
308 307 306 307 307 308 306 306 306 307 311 311 311 312 315 320 323 327 331 329 328 330 331 332 333 334 335 333 331 331 330 326 330 333 334 335 333 334 332 331 330 327 326 325 322 321 325 323 321
306 302 304 305 306 305 307 302 303 309 311 310 310 311 315 320 323 325 329 328 329 329 330 329 332 334 333 332 333 333 333 331 331 332 332 333 334 333 330 329 330 328 327 326 325 325 324 321 320
301 302 297 304 305 306 306 298 306 310 310 308 309 313 315 320 322 326 328 328 329 329 328 329 329 332 332 331 333 333 333 333 332 330 331 332 333 331 328 328 328 329 328 328 326 325 321 319 317
297 293 296 299 306 306 305 301 306 310 310 309 311 312 313 319 324 325 327 328 328 329 327 327 328 328 330 330 330 332 332 332 332 330 330 330 330 327 327 327 328 330 328 327 327 323 320 316 314
292 294 296 296 302 303 303 302 305 308 308 309 311 312 312 314 322 325 326 328 327 329 327 326 326 328 328 327 327 328 330 331 332 330 328 328 328 326 324 325 327 327 327 326 324 321 320 316 314
296 295 295 298 302 301 302 303 304 308 308 308 309 311 312 313 321 326 326 327 326 326 324 323 324 325 325 323 323 323 323 325 328 330 327 327 326 325 322 322 323 323 324 323 324 321 317 317 319
295 294 294 298 301 301 301 301 304 307 307 308 308 309 311 314 320 324 325 326 324 322 322 322 324 323 324 324 323 323 323 324 326 329 327 327 325 324 320 321 321 321 321 322 321 318 317 318 318
294 292 294 294 298 301 300 298 301 305 307 309 310 310 311 313 319 322 323 324 323 321 321 321 322 323 324 324 323 322 324 324 324 325 325 325 324 323 322 322 322 320 320 320 319 320 318 315 315
291 297 296 295 293 289 299 290 299 303 304 307 309 309 309 313 315 322 322 323 322 321 322 323 322 322 323 323 323 320 319 318 321 324 324 323 324 322 322 323 322 321 321 319 320 321 319 317 312
295 298 295 295 294 293 294 291 296 302 300 304 307 309 312 314 315 321 322 323 324 322 321 322 323 322 322 322 323 321 318 319 320 321 320 321 321 320 320 321 322 321 321 321 320 319 319 319 315
301 297 295 295 293 287 292 292 293 298 301 303 308 309 312 313 316 321 323 323 323 324 321 321 321 320 322 321 322 321 319 319 318 319 318 318 318 319 319 319 321 321 321 321 321 321 319 319 318
297 293 285 283 284 284 294 292 295 302 304 306 307 310 313 318 318 320 321 320 321 321 320 320 319 318 321 320 322 320 319 320 318 319 319 317 317 317 318 319 320 320 320 321 322 321 320 319 319
293 293 286 279 281 286 293 289 296 305 307 308 310 312 314 315 319 319 321 321 321 321 320 319 319 318 319 320 320 320 319 320 319 319 319 319 318 318 320 320 321 321 321 321 321 321 322 321 320
291 290 296 289 291 286 289 296 303 306 305 307 308 310 312 315 317 319 322 322 321 321 320 321 319 318 319 320 320 320 319 319 319 320 320 319 320 321 321 320 320 320 320 320 320 320 320 320 319
293 295 288 290 281 280 287 290 293 300 302 306 306 309 311 314 317 319 321 322 323 323 323 321 322 320 319 321 321 320 320 319 318 321 320 319 320 321 320 319 319 318 318 319 319 319 318 318 318
290 289 291 291 289 283 283 288 301 302 305 305 306 310 312 312 316 319 321 323 323 324 323 322 321 321 320 321 321 321 320 320 319 318 320 321 321 321 321 321 320 319 319 319 318 317 317 317 318
297 293 291 286 285 290 288 288 303 304 305 306 306 309 312 314 316 319 321 323 322 322 322 322 322 322 321 322 321 320 320 321 320 319 317 320 321 321 320 321 320 320 319 319 318 318 319 319 318

GFSSGP_sfc_thetae_105.txt.gz
Theta_e
318 317 312 307 296 292 289 294 300 298 300 305 307 305 301 302 303 300 331 338 345 343 349 350 348 349 350 350 351 350 351 352 352 351 350 349 348 348 347 347 346 347 347 344 344 343 343 341 341
313 314 308 302 292 287 292 298 297 303 306 308 307 307 305 305 322 329 330 339 343 344 346 349 348 348 350 350 350 350 351 351 351 351 350 349 348 348 347 347 345 345 345 342 342 342 341 340 340
317 316 301 296 292 289 291 297 299 303 307 306 302 304 307 308 322 328 333 338 337 342 343 347 347 347 349 349 350 350 350 350 349 349 350 348 348 348 348 345 344 344 344 341 341 340 340 340 339
311 306 300 291 290 295 297 299 305 304 304 305 306 303 309 315 322 331 333 334 331 337 344 343 343 346 348 349 349 349 349 348 347 347 348 347 347 346 345 344 343 343 343 342 339 339 339 337 336
305 299 290 289 292 298 302 303 304 302 304 307 306 303 305 319 330 331 331 332 329 335 340 341 341 344 348 350 349 348 348 347 347 343 343 341 343 343 341 341 343 342 341 341 339 338 337 335 334
299 297 287 286 293 299 302 304 306 305 308 306 305 306 306 326 328 330 332 330 332 335 340 338 341 343 345 348 347 345 345 345 343 342 341 340 339 340 340 340 341 340 339 338 337 337 335 334 333
296 292 289 291 294 298 301 304 304 303 305 308 308 304 314 323 329 331 331 331 335 335 337 337 335 336 340 340 339 342 342 341 341 338 339 340 337 338 340 340 340 338 337 337 336 335 333 332 330
300 294 290 294 294 294 303 305 306 304 302 309 311 302 304 323 330 330 330 331 332 332 332 333 332 331 328 329 333 334 337 336 338 338 337 336 337 338 338 338 338 337 336 336 335 333 332 330 328
299 292 291 293 294 298 303 303 306 307 304 306 308 308 312 329 329 327 326 328 328 331 330 331 329 327 328 328 329 331 333 334 334 331 329 333 335 337 337 336 336 336 335 334 333 332 329 327 326
296 292 293 299 301 300 303 303 302 302 305 304 307 310 321 328 326 324 324 325 327 327 328 330 329 328 328 329 327 327 328 329 329 330 324 333 334 335 334 334 334 334 333 332 331 329 328 324 318
298 294 299 301 303 303 302 301 302 300 298 303 303 307 321 324 324 323 323 322 328 330 329 330 330 328 328 326 324 327 326 327 325 325 325 332 335 334 333 332 331 329 330 326 325 323 319 317 316
297 301 302 302 303 303 301 300 301 298 301 306 305 305 309 320 320 320 320 321 326 330 328 328 328 325 324 325 325 326 325 324 325 324 330 331 333 333 331 329 327 325 324 321 318 316 316 314 316
299 301 303 304 304 302 304 302 302 300 304 307 307 308 307 315 315 321 322 324 325 327 328 327 327 326 325 326 325 328 327 326 327 325 332 333 332 332 330 326 324 322 321 319 315 315 316 314 315
303 303 303 303 302 302 301 301 300 303 306 307 308 307 307 310 316 321 324 323 323 325 326 327 328 328 328 327 326 328 325 325 328 325 332 333 332 332 329 324 321 320 320 318 316 317 317 315 315
302 298 300 301 301 300 302 298 298 303 305 305 307 308 307 312 317 321 325 324 323 324 325 326 329 330 328 329 328 329 325 325 328 331 333 332 333 332 329 325 321 321 321 318 317 317 318 317 318
293 294 290 299 301 302 301 294 302 305 304 304 305 307 307 311 316 319 325 323 323 323 323 325 329 328 326 329 329 330 326 326 329 330 331 331 332 331 329 327 322 324 322 319 319 318 319 315 315
289 285 288 293 300 301 301 296 301 305 305 304 303 304 307 308 315 321 322 321 322 323 322 323 325 325 325 325 328 328 329 328 329 330 331 331 330 328 328 328 326 326 322 323 321 320 319 314 313
284 286 290 291 296 298 297 297 301 305 304 301 303 305 305 305 315 319 320 322 323 322 322 321 323 322 324 321 324 326 329 330 328 328 330 330 329 328 326 327 326 327 323 325 322 319 317 314 313
288 288 288 291 297 296 296 296 300 303 305 301 300 303 305 305 318 320 321 321 321 321 320 321 323 324 320 318 318 318 322 327 328 327 327 328 327 327 326 326 325 327 324 324 322 319 314 311 310
289 288 288 292 296 296 294 295 299 301 303 304 301 302 302 303 318 319 319 319 320 319 319 321 322 323 320 319 320 320 319 321 329 328 327 327 326 325 323 324 323 325 324 322 320 317 314 312 313
291 289 288 288 293 296 294 292 296 301 303 305 304 304 304 306 316 318 319 318 318 316 317 320 322 321 319 322 322 319 319 321 322 326 325 326 326 325 322 322 321 324 323 320 318 317 314 312 312
288 294 293 292 288 284 294 284 292 296 298 302 304 304 304 305 318 318 318 317 316 315 318 320 321 322 322 322 320 319 318 317 321 321 325 324 325 324 320 322 321 321 323 320 318 318 316 313 310
290 296 294 292 288 286 289 287 290 296 296 299 302 303 306 305 317 317 318 317 317 317 317 321 321 321 321 321 321 319 319 319 322 323 323 323 324 323 320 322 321 320 320 319 318 318 318 315 313
297 294 293 291 287 281 288 287 287 291 295 299 304 304 304 305 317 318 319 319 317 317 317 320 320 320 320 320 320 319 318 319 319 322 320 321 321 321 320 321 320 320 320 319 319 318 318 317 315
292 287 281 279 279 280 290 288 289 296 300 301 302 305 306 306 316 316 317 317 316 315 316 319 319 318 319 319 319 317 317 319 318 319 319 318 318 318 319 320 320 320 320 320 319 318 318 318 317
288 287 281 276 277 281 291 286 290 301 304 307 306 307 308 315 316 316 317 317 316 316 316 319 317 317 319 319 319 317 318 318 319 318 318 318 318 318 318 318 319 320 320 319 319 318 318 318 318
287 285 290 286 286 282 286 290 297 304 303 306 305 305 306 313 315 316 316 317 317 316 316 316 316 317 319 319 318 315 317 318 318 319 318 318 318 319 317 316 317 319 320 319 318 318 317 318 318
289 291 283 287 279 277 283 286 288 297 298 303 304 305 306 311 314 316 315 316 318 317 317 316 317 317 318 318 318 317 317 319 319 319 318 318 318 318 317 316 316 318 319 319 319 318 318 317 318
289 285 286 287 287 279 278 283 299 299 301 302 304 306 306 307 313 316 316 317 318 318 317 316 316 315 317 318 317 317 316 318 318 319 318 318 319 318 318 317 317 318 318 319 318 318 317 316 316
293 290 290 280 281 285 284 284 299 301 302 304 303 306 308 310 312 316 317 317 317 317 317 317 316 316 316 319 319 317 317 316 315 318 318 319 318 319 319 319 318 318 317 317 316 315 317 315 314

GFSSGP_sfc_thetae_108.txt.gz
Theta_e
318 313 309 306 295 290 287 292 297 296 298 303 304 303 301 301 301 296 326 341 343 344 347 347 347 349 350 350 350 350 351 352 351 350 349 349 348 348 348 348 348 348 348 345 343 344 345 344 344
310 311 306 299 291 286 289 295 295 300 304 305 305 304 303 304 325 328 330 342 343 345 346 346 346 348 349 349 349 350 351 351 350 349 348 348 347 348 348 347 346 346 346 344 345 343 342 342 342
311 314 301 294 288 287 289 295 297 302 305 304 301 303 305 308 328 329 331 341 343 343 347 346 345 346 348 349 349 349 350 350 349 348 348 348 347 347 347 345 344 345 345 343 343 342 340 340 338
309 304 299 289 288 293 295 299 300 302 301 302 304 301 307 322 327 330 336 338 341 340 344 344 343 345 347 349 349 349 349 347 347 347 347 348 348 348 346 344 344 344 344 342 341 340 340 339 338
302 295 289 286 289 293 298 300 302 300 302 304 305 302 304 322 328 332 332 332 332 338 340 343 342 344 347 349 349 348 347 346 346 346 343 341 346 345 344 343 343 342 342 342 341 340 339 337 336
298 293 285 284 289 295 299 302 302 302 305 303 303 303 309 325 328 328 329 328 334 337 338 340 343 344 345 347 347 346 344 345 344 341 339 339 341 343 342 342 342 341 340 339 339 338 336 335 333
294 291 286 287 291 295 299 301 302 301 303 305 306 302 314 320 326 328 327 329 336 337 335 336 338 341 343 342 343 342 342 341 340 338 337 339 338 338 340 340 341 340 339 338 338 336 334 333 331
298 293 288 289 290 292 299 302 304 302 301 307 309 302 311 320 327 327 329 331 331 333 333 332 331 331 330 334 337 338 339 337 337 336 335 334 332 334 338 339 339 339 338 337 336 334 332 331 329
298 288 286 291 291 295 301 300 303 305 302 303 306 306 309 325 327 325 325 326 327 329 329 330 328 326 326 327 329 334 333 334 335 335 333 331 329 333 338 337 337 337 336 336 335 333 331 328 328
295 288 290 295 297 297 301 301 301 299 302 303 305 309 325 326 325 323 323 323 324 326 326 327 326 325 325 329 326 326 328 332 334 333 332 333 332 334 335 334 335 335 334 334 333 331 329 325 320
294 292 295 297 299 300 300 298 300 298 296 301 301 304 322 324 324 322 323 324 326 327 327 327 327 326 324 325 323 324 327 327 330 330 333 334 333 333 333 332 332 331 332 328 328 326 321 317 316
295 300 298 298 301 299 298 301 298 298 300 304 303 303 321 322 322 322 322 322 324 326 327 327 327 325 323 323 322 322 325 327 327 328 330 330 330 331 332 330 329 327 326 321 320 316 315 315 316
298 299 301 302 300 299 301 298 299 298 302 305 305 305 315 321 322 322 322 320 326 326 326 326 326 323 322 322 322 323 323 324 326 326 326 328 330 330 330 328 327 324 320 317 314 314 313 313 315
300 300 300 299 299 300 300 300 297 300 304 304 305 305 305 315 320 320 320 322 326 327 326 325 325 324 323 324 323 325 327 325 325 326 326 326 330 330 328 326 322 320 319 315 313 313 311 312 314
297 293 294 296 297 297 299 296 295 300 302 302 304 305 305 305 314 318 322 322 325 327 326 325 325 325 324 325 324 326 326 325 326 325 327 326 329 329 326 323 319 319 316 312 312 314 313 314 315
292 292 287 297 297 299 296 292 300 301 303 302 305 306 305 304 313 320 323 323 323 325 324 324 328 325 325 326 327 327 325 326 327 326 329 329 329 330 325 320 318 319 317 313 314 314 315 314 314
286 286 287 291 296 295 295 292 297 302 302 302 303 304 304 304 310 319 323 322 322 324 323 322 324 323 323 328 327 328 324 326 329 327 330 330 331 329 324 320 318 318 317 314 316 316 317 314 312
282 283 286 286 290 293 293 293 297 300 300 300 303 304 303 302 308 317 320 321 322 322 322 321 321 322 323 322 327 328 324 326 329 330 329 331 331 329 325 320 320 319 319 314 318 317 316 315 312
286 284 283 286 291 289 291 292 295 298 299 300 302 303 301 303 307 318 321 320 320 320 320 319 319 319 319 317 321 324 323 325 325 328 329 330 330 329 327 322 322 320 320 315 319 319 315 310 311
285 284 283 287 290 290 290 290 294 296 299 301 302 303 303 302 313 318 319 319 319 319 319 318 320 320 319 318 318 321 322 326 326 327 329 329 328 328 328 325 323 321 319 320 319 317 312 311 310
286 283 284 285 289 290 289 289 292 297 300 302 303 303 304 303 313 316 318 317 317 317 317 318 320 322 321 318 318 316 319 322 324 324 325 327 327 327 327 326 324 324 322 321 320 317 315 312 310
286 291 290 290 287 284 290 281 289 293 295 299 300 302 303 304 315 317 317 316 317 317 317 318 320 321 321 319 318 317 314 317 320 325 325 327 326 325 326 326 326 326 324 322 321 318 315 313 310
289 292 291 291 287 283 285 281 287 292 292 296 299 301 302 302 314 316 317 317 317 315 316 318 320 320 322 321 320 319 318 318 317 321 323 325 325 325 323 323 324 325 324 322 319 317 317 314 312
293 290 291 289 286 280 285 284 285 287 292 296 300 302 304 302 313 317 318 317 315 316 316 317 319 320 320 320 320 319 318 319 319 320 320 322 324 323 321 321 322 324 323 320 319 318 317 316 315
289 286 279 278 278 279 287 285 287 292 296 298 302 303 306 309 310 316 315 315 314 314 315 316 318 317 319 319 320 319 319 320 319 321 321 321 322 321 319 320 320 320 322 321 320 319 317 317 316
285 285 280 276 277 280 287 281 288 296 300 305 307 307 307 307 311 316 316 315 314 315 315 317 317 317 318 318 319 319 317 319 318 321 321 321 321 321 320 320 320 320 320 320 320 318 317 317 316
286 283 289 283 284 280 283 288 293 296 301 304 305 307 306 310 313 315 316 315 315 315 315 316 316 317 318 319 319 318 318 316 318 318 320 319 320 321 320 320 319 320 319 319 318 317 316 316 316
288 289 281 283 276 276 281 283 285 292 297 301 303 304 306 309 313 316 316 315 316 315 316 315 316 317 318 319 319 318 317 317 317 317 317 318 319 319 318 319 319 319 319 319 318 316 317 316 317
288 287 288 285 284 278 277 281 295 296 298 299 302 305 305 306 308 315 316 317 316 316 315 315 315 315 317 318 318 317 316 317 318 317 317 316 318 318 317 317 317 317 318 319 318 317 317 316 315
292 288 289 281 279 282 282 282 296 300 302 302 301 303 306 307 305 312 315 317 315 315 315 314 314 314 316 317 318 317 316 317 318 318 317 317 316 317 317 316 316 316 317 317 317 316 317 316 315

GFSSGP_sfc_thetae_111.txt.gz
Theta_e
319 312 307 304 294 290 286 290 294 294 296 301 302 301 300 300 299 295 318 332 341 342 344 345 347 349 349 349 350 350 351 351 350 350 351 350 350 350 349 349 349 350 348 347 347 348 348 346 345
308 310 304 297 290 285 287 293 293 298 302 303 303 302 301 304 322 323 327 340 342 344 344 344 346 348 349 348 349 350 351 350 349 349 349 349 349 349 349 349 347 347 348 346 347 347 346 343 343
309 311 300 292 287 286 288 294 295 300 302 303 299 301 303 308 325 327 331 341 342 343 344 344 345 346 348 348 349 350 349 349 348 348 348 348 348 348 348 347 346 346 346 344 344 344 343 342 340
306 304 297 289 287 291 293 297 300 299 301 301 301 299 305 316 325 331 333 341 340 342 344 342 343 345 347 348 349 349 348 347 346 346 347 348 348 347 347 345 345 345 343 343 343 342 341 339 338
300 295 288 284 286 291 295 298 298 298 299 302 302 300 302 318 326 330 336 341 338 338 342 342 340 344 347 349 348 348 347 346 346 346 346 345 346 344 344 343 343 343 343 344 342 341 339 339 337
296 292 284 284 287 293 296 299 300 300 301 302 302 302 304 321 326 330 332 338 338 337 338 341 342 343 345 347 346 345 345 345 344 343 344 343 341 340 340 343 342 341 341 340 339 339 338 336 334
293 289 285 285 288 292 296 300 298 298 300 303 304 301 311 319 325 328 327 327 334 335 336 337 340 342 342 342 342 342 342 342 341 339 338 339 337 337 339 339 339 341 339 339 338 337 335 333 332
296 292 286 288 289 291 297 299 302 299 299 305 307 305 308 318 324 325 328 330 331 332 332 334 335 338 340 343 340 340 339 340 338 335 334 335 335 336 337 337 338 339 338 338 337 334 332 331 331
296 288 285 289 289 292 298 298 300 301 300 301 304 308 313 322 326 325 324 325 326 329 329 329 329 330 331 333 337 338 341 334 336 334 335 333 333 334 335 336 338 338 337 336 335 333 330 329 330
294 287 288 294 294 295 298 299 300 298 300 300 302 308 322 324 323 323 323 323 324 325 325 328 326 325 325 328 328 328 333 335 335 333 334 331 329 330 332 335 336 336 336 335 334 331 328 327 325
292 291 293 295 297 297 297 295 298 296 295 299 299 302 319 321 322 323 323 324 325 327 325 326 326 324 323 325 323 322 323 331 333 332 331 330 328 330 334 334 334 332 333 330 329 327 320 319 321
293 295 296 296 299 297 295 298 295 296 298 302 302 301 318 320 321 322 322 323 322 323 326 325 326 324 323 324 322 325 325 327 331 332 330 330 328 330 329 331 330 328 327 323 323 319 315 315 318
295 297 299 301 300 299 299 296 297 297 300 302 302 303 314 319 321 323 324 322 322 323 324 325 326 324 323 322 320 322 324 325 329 329 331 331 329 328 330 331 330 325 320 320 316 313 315 314 316
298 298 298 298 298 298 298 298 295 298 302 302 302 303 305 317 320 321 320 319 320 324 325 326 326 325 322 322 320 321 321 324 326 328 329 331 330 329 330 329 327 322 321 316 316 314 313 313 315
295 291 293 295 297 296 296 296 294 299 299 302 303 304 304 304 310 319 321 320 321 324 325 325 326 323 321 322 320 322 324 324 323 325 327 328 330 329 329 328 323 320 316 312 311 311 310 312 315
290 289 286 295 296 298 296 292 297 301 299 299 301 302 303 304 304 311 319 320 321 324 324 325 327 323 321 323 322 323 325 324 324 325 325 327 328 330 327 324 321 318 313 312 312 312 311 310 314
286 284 285 289 296 295 293 290 293 298 299 299 299 300 301 303 305 305 313 320 323 325 324 323 324 323 322 322 324 325 322 324 327 327 325 325 329 327 325 322 318 316 313 312 311 311 312 311 313
283 282 285 285 290 290 288 289 292 296 297 296 297 298 299 301 304 305 312 320 323 324 323 322 323 322 321 325 327 325 322 326 326 327 325 325 328 327 324 320 317 316 312 310 312 313 312 311 313
286 284 283 284 288 286 286 287 290 293 294 295 296 298 300 301 305 305 318 319 319 321 321 321 321 320 321 321 322 322 322 325 325 327 327 327 328 326 322 319 317 315 311 310 313 313 312 309 311
284 283 283 285 288 287 286 287 291 292 292 295 297 299 301 302 302 313 315 318 319 320 320 320 321 319 318 319 321 323 323 325 326 327 328 328 328 326 323 319 317 315 312 311 314 315 310 310 311
285 283 282 283 286 287 285 286 289 293 294 298 299 300 302 302 301 311 316 316 318 318 318 319 319 320 317 317 317 319 322 324 323 324 326 328 328 327 325 320 319 316 315 312 316 316 315 311 308
285 288 287 285 284 281 288 281 289 290 291 294 296 298 299 299 304 313 316 315 316 318 318 318 319 318 317 317 316 318 320 320 322 323 326 327 328 328 327 322 320 317 317 314 316 318 316 312 309
289 293 290 289 285 282 284 280 287 289 290 292 294 296 297 300 307 313 316 317 317 317 317 317 318 319 320 318 317 315 313 317 321 324 323 325 326 327 327 325 322 320 319 319 317 318 314 314 312
292 288 288 287 284 278 284 282 284 285 289 292 296 299 305 305 303 309 316 317 316 315 315 316 317 319 321 320 316 315 313 314 315 319 321 323 325 325 326 326 324 323 322 321 320 318 315 314 312
287 284 277 276 277 278 285 282 285 290 293 295 301 303 306 307 308 306 313 315 315 314 314 316 317 317 319 320 318 317 317 318 316 316 318 319 323 323 324 324 324 324 324 321 318 317 316 315 313
285 284 278 273 274 278 285 280 284 294 297 302 304 305 306 307 307 311 314 315 314 314 314 316 316 318 319 319 319 319 319 319 320 319 319 321 321 323 322 322 323 324 321 319 319 318 317 317 316
286 281 286 280 280 279 281 284 289 294 298 300 302 304 304 305 306 309 315 315 315 314 314 315 315 317 318 318 318 319 319 319 319 320 322 322 323 322 321 321 321 322 321 320 319 318 317 317 317
289 290 280 281 276 274 278 280 282 289 294 298 298 302 303 303 304 307 315 314 315 315 315 315 316 317 316 318 318 317 318 318 318 319 319 320 321 321 320 320 320 321 320 320 320 318 317 316 316
285 284 285 285 281 277 275 278 291 294 297 296 298 301 302 303 306 307 311 315 315 315 315 315 315 315 315 318 319 316 317 317 316 316 318 319 319 320 319 319 319 319 318 319 318 317 317 315 315
288 287 287 281 280 281 280 279 292 293 299 299 300 301 303 305 306 307 308 315 313 314 315 314 314 315 315 317 318 317 317 317 316 315 315 318 317 318 318 318 318 318 317 317 316 315 316 315 314

GFSSGP_sfc_thetae_114.txt.gz
Theta_e
319 308 305 303 294 289 286 289 292 293 294 299 301 300 298 298 299 293 314 335 339 339 342 345 347 348 348 349 350 349 349 351 353 352 351 351 351 351 351 351 351 351 350 348 349 351 349 348 346
309 308 303 296 288 284 286 291 293 296 300 302 301 301 300 300 317 319 322 333 340 341 342 344 346 347 348 349 350 351 350 349 349 350 351 351 350 350 351 350 349 349 350 348 349 349 348 346 345
308 309 298 290 285 284 287 293 294 297 300 301 297 299 302 304 322 323 328 337 341 341 342 344 345 346 347 348 349 350 349 347 347 348 351 350 350 349 349 347 347 348 349 348 348 348 345 343 341
305 302 295 289 285 290 292 294 298 298 300 299 300 298 302 311 321 328 330 340 340 340 341 341 343 345 347 348 349 349 349 348 347 348 349 350 350 349 348 346 346 346 347 346 348 346 343 340 339
298 294 288 283 285 290 294 296 296 297 297 300 300 298 300 311 324 329 334 339 337 339 340 340 341 344 347 349 348 347 347 346 346 346 344 346 345 346 345 344 343 344 343 344 344 343 340 339 337
293 291 285 282 285 290 294 297 298 298 300 300 300 300 301 317 323 327 334 336 336 337 338 339 342 344 345 346 347 346 345 344 344 343 343 343 341 341 341 342 341 342 342 341 341 340 339 337 336
291 288 284 283 285 289 293 297 297 296 298 301 302 298 304 315 321 328 328 332 331 334 335 336 339 342 343 342 342 342 342 342 342 342 340 339 339 338 339 339 340 340 339 340 339 338 335 336 334
294 292 285 287 286 288 294 297 300 298 296 302 307 301 302 312 322 326 327 329 328 330 332 337 339 341 341 342 340 339 340 340 340 339 339 336 335 335 338 337 338 339 339 339 338 335 333 334 332
294 288 284 288 289 290 296 296 298 299 298 299 301 305 311 318 324 323 322 323 326 328 329 332 337 338 340 341 341 340 340 339 337 337 336 332 331 332 335 335 337 338 337 337 336 333 331 331 330
293 287 288 293 293 293 296 297 298 296 297 299 301 303 316 321 321 320 321 321 323 325 326 329 332 335 336 337 337 341 341 340 336 334 334 333 332 332 333 334 335 336 336 335 334 331 330 329 326
293 289 292 295 295 296 294 293 296 293 293 298 299 301 313 319 319 320 321 322 325 328 328 327 328 328 328 331 334 332 333 337 335 331 332 333 331 332 330 332 333 333 334 331 329 326 324 323 323
291 294 295 296 298 296 294 294 295 295 297 302 300 300 305 317 318 319 320 322 322 323 326 326 326 325 323 324 324 326 327 331 335 333 331 329 328 328 330 331 332 332 330 328 324 319 317 320 319
294 296 298 299 300 299 298 296 297 294 299 301 301 302 301 311 318 320 321 322 321 321 323 325 326 325 323 322 321 325 324 327 332 332 332 330 327 327 330 330 330 329 329 327 319 315 315 315 316
297 296 297 297 297 298 297 297 295 298 301 300 301 301 302 307 316 318 319 320 319 322 322 324 326 325 323 322 321 324 325 326 328 331 330 330 328 328 328 328 328 326 326 324 318 314 313 315 316
295 291 292 293 295 295 296 292 293 299 299 299 301 302 302 303 308 313 317 319 322 322 322 324 325 324 323 322 320 321 322 323 325 328 331 330 329 328 328 329 327 324 322 319 315 311 311 314 314
290 289 286 293 294 296 296 290 296 298 297 297 298 300 301 302 303 304 311 315 318 320 322 324 327 323 322 322 320 321 323 322 323 326 328 330 330 329 328 328 325 322 319 317 315 312 310 312 313
286 284 285 288 295 293 293 291 291 294 294 294 296 297 298 300 302 303 304 305 311 318 322 323 325 323 321 320 320 321 323 323 323 324 325 327 329 329 328 328 324 318 316 316 314 311 312 312 312
284 283 284 283 288 290 288 287 289 290 292 293 293 295 296 297 299 302 303 305 309 320 322 323 324 323 321 320 324 324 322 322 324 326 325 325 326 327 328 325 319 318 314 313 314 311 311 311 313
286 284 282 283 288 286 287 286 286 289 289 291 292 293 295 298 301 302 306 313 317 321 321 322 322 321 322 323 323 323 321 322 325 325 326 325 325 326 325 320 318 316 313 312 312 312 311 309 311
285 282 283 285 288 286 283 284 288 290 291 292 293 294 295 298 301 302 305 313 316 320 320 321 321 321 323 324 324 323 322 324 325 325 325 325 326 324 322 320 318 315 312 310 311 312 309 309 312
282 281 281 283 286 286 284 284 286 291 291 295 296 296 297 297 298 300 303 312 314 317 319 320 320 322 322 322 323 323 322 323 323 324 323 325 325 323 321 319 317 315 311 310 311 312 312 309 308
284 288 288 287 282 279 286 278 285 289 290 292 294 293 293 295 299 301 302 311 313 317 316 319 320 321 318 319 321 321 320 319 322 322 325 324 326 324 321 319 318 315 311 310 311 313 313 311 308
287 290 288 287 284 281 281 280 282 288 288 289 292 293 296 303 303 304 306 313 314 316 315 318 320 320 318 318 319 320 319 320 322 324 323 325 326 325 322 320 318 315 314 311 312 314 314 312 312
292 288 287 285 282 277 282 281 282 283 287 290 294 300 303 303 304 306 308 312 313 315 315 318 318 319 318 317 314 315 314 318 321 322 322 323 325 326 325 321 319 317 315 313 313 316 314 313 314
286 283 277 275 277 275 284 281 284 288 291 297 299 301 303 303 303 304 306 312 314 316 315 317 318 318 318 317 316 313 313 317 319 321 322 322 323 324 324 324 321 319 317 318 315 317 315 313 312
284 283 278 273 273 275 284 278 283 291 296 299 301 303 304 303 303 305 307 310 315 316 315 317 317 317 317 317 317 316 314 315 314 316 319 321 323 324 325 325 323 321 319 320 318 317 316 314 313
285 282 286 280 279 277 278 282 287 293 295 298 298 301 301 302 303 304 306 308 313 315 315 316 317 317 316 316 319 319 319 319 318 317 316 317 320 322 324 325 325 323 322 320 319 317 316 315 314
288 290 281 281 276 274 276 278 280 290 293 296 296 298 299 300 302 304 306 308 309 315 316 316 317 317 317 317 318 318 319 319 319 317 319 319 321 322 322 322 324 324 322 320 319 317 317 316 315
285 284 285 285 282 277 275 277 290 288 294 295 297 299 299 300 303 304 306 308 310 316 316 316 316 317 317 317 318 318 318 318 318 318 319 320 320 321 321 321 322 321 320 320 319 318 318 316 316
288 286 286 279 278 281 279 279 291 288 290 293 298 301 302 303 304 306 309 310 312 314 315 315 316 316 316 314 318 318 318 317 316 317 318 318 318 319 320 320 320 320 320 320 319 317 317 316 315

GFSSGP_sfc_thetae_117.txt.gz
Theta_e
325 313 313 311 303 300 297 298 299 300 302 305 306 305 306 307 308 303 324 337 343 345 347 348 345 346 347 350 350 349 351 354 354 353 352 352 351 352 352 351 351 351 353 351 351 352 350 348 348
317 312 311 305 299 295 297 299 299 302 305 306 306 305 305 305 315 322 327 341 345 346 347 348 345 346 347 350 349 348 350 352 353 352 352 351 352 351 352 352 350 350 351 351 350 350 349 347 346
314 312 308 301 296 293 296 299 302 304 305 305 305 307 307 309 323 326 331 341 345 345 346 347 344 345 348 349 350 348 349 350 351 351 351 351 351 351 351 349 349 348 350 350 349 348 347 345 343
312 311 302 297 294 297 299 302 302 302 303 305 306 304 309 315 325 332 333 341 345 345 346 344 343 344 347 349 350 347 347 347 348 349 350 351 349 348 346 344 346 346 346 349 347 346 344 341 340
306 305 298 294 294 297 300 302 302 302 302 303 305 304 308 316 328 332 336 341 343 345 346 346 341 344 347 349 349 348 346 345 347 348 348 348 345 343 343 342 344 344 344 345 345 344 341 339 338
303 301 294 291 293 296 299 302 302 302 303 304 303 305 309 321 327 333 339 342 345 345 345 347 343 344 345 347 347 346 346 344 345 346 346 345 343 342 341 342 342 342 343 342 341 341 340 338 336
299 298 293 292 292 294 298 303 302 302 302 304 307 304 310 318 326 334 339 343 344 346 345 346 345 345 343 342 342 342 342 343 342 343 341 342 340 339 340 340 341 340 340 341 339 339 338 337 335
301 300 293 293 293 294 300 302 304 303 302 307 310 306 305 313 328 332 335 341 342 344 345 344 343 343 348 347 340 340 340 340 341 340 339 337 337 338 339 339 340 340 340 339 339 338 336 335 332
302 295 292 293 293 296 301 300 303 305 303 304 307 308 312 320 328 330 332 335 339 340 342 343 340 341 342 345 345 341 341 339 338 339 337 335 340 341 338 335 337 339 338 338 336 335 334 332 330
300 294 293 299 298 298 300 300 302 301 301 303 305 309 311 323 325 326 328 330 333 337 339 340 338 339 340 341 343 347 343 347 346 344 342 342 339 338 337 335 336 338 337 336 334 333 333 331 332
299 295 297 299 300 300 299 299 302 302 300 304 305 308 310 315 321 324 327 330 331 335 338 338 336 338 338 339 341 344 343 343 342 344 343 340 336 336 338 338 339 340 337 335 334 332 334 333 332
296 298 300 300 301 301 299 302 301 302 304 308 308 308 306 309 315 322 325 328 329 331 335 337 339 336 336 338 339 341 342 340 338 338 339 336 334 336 335 337 338 338 337 335 333 332 332 333 331
296 299 299 301 301 301 302 301 301 301 305 306 306 305 307 308 310 320 326 328 329 329 332 336 338 338 336 334 335 336 337 337 338 335 333 334 334 335 331 332 334 335 333 334 331 329 327 329 328
300 299 300 301 301 302 300 301 301 303 304 304 305 307 307 308 311 318 323 325 327 329 330 334 336 337 337 336 335 332 332 333 335 334 332 334 334 334 332 330 331 332 331 332 328 326 324 326 327
298 295 296 297 299 299 301 297 297 304 304 302 303 306 307 308 310 313 318 319 321 325 329 331 334 336 335 334 334 330 330 332 335 337 333 332 331 330 331 329 329 330 329 326 325 324 324 325 326
293 293 290 296 296 298 299 293 301 301 300 298 299 301 303 306 308 310 313 315 317 321 324 329 331 333 334 333 332 328 328 329 330 331 332 331 332 330 329 329 328 327 325 324 321 324 322 323 324
289 287 289 291 298 298 297 294 299 299 296 296 298 300 301 304 307 309 310 312 313 316 318 326 330 331 333 333 331 328 327 326 326 327 329 331 331 331 330 328 327 324 322 322 323 323 323 322 322
285 286 288 289 293 294 294 293 296 295 294 295 297 299 300 302 305 308 309 312 312 315 317 326 330 331 332 331 329 327 326 325 325 325 327 328 330 330 329 328 325 323 321 321 322 322 322 322 322
290 288 288 289 293 291 292 291 293 294 293 295 297 299 301 303 307 308 309 311 313 322 324 327 328 329 329 326 324 323 322 322 324 326 327 329 328 328 328 328 323 322 319 322 324 322 320 320 322
288 287 287 289 291 290 289 290 293 294 295 297 298 299 301 303 305 308 311 311 316 322 326 327 328 326 329 328 327 327 325 325 325 328 328 328 328 326 327 326 322 321 319 319 320 321 319 320 321
286 285 286 286 288 290 289 289 292 294 295 297 299 301 301 301 308 310 312 314 316 320 324 326 327 325 329 330 328 328 326 325 325 326 326 326 325 326 324 323 322 319 317 316 320 321 320 316 319
284 289 287 286 286 284 291 283 289 293 294 296 297 299 303 309 310 310 311 312 317 319 325 326 326 325 326 328 327 325 323 320 323 325 325 325 324 322 322 322 319 317 317 316 320 319 319 318 317
287 292 289 289 287 286 287 284 287 291 290 293 297 303 308 309 309 309 310 312 317 321 324 326 326 324 323 325 326 326 322 323 328 327 324 326 325 322 321 320 318 315 315 318 318 320 321 322 320
295 291 290 289 287 280 285 285 285 288 291 293 301 306 308 309 310 310 312 313 315 322 322 323 323 321 321 323 324 324 322 322 324 325 323 325 325 323 322 319 317 315 315 316 317 318 320 321 322
291 287 280 278 279 278 286 284 286 292 295 301 302 304 306 307 307 308 309 311 313 318 318 320 321 319 320 321 322 323 323 326 325 324 325 322 324 325 322 321 318 317 317 316 317 318 319 320 320
288 287 281 274 276 279 285 281 287 297 301 301 302 304 304 305 306 307 309 311 312 314 319 318 318 318 319 321 322 325 326 325 325 325 326 325 324 324 325 323 323 319 318 315 317 319 319 320 321
286 283 290 283 283 281 283 286 293 297 297 297 299 302 303 305 306 308 310 311 314 314 316 317 318 319 319 320 322 323 323 321 321 321 323 325 325 326 325 324 323 323 318 319 319 320 319 321 320
289 291 283 284 277 275 280 282 285 288 290 293 295 299 304 306 306 308 311 313 314 318 317 320 318 318 319 321 323 324 324 323 322 322 322 322 323 324 324 325 324 322 320 319 318 318 320 318 318
286 286 286 287 284 278 277 281 291 290 292 291 293 296 302 306 306 307 309 312 312 316 320 318 318 318 318 321 323 323 321 321 321 321 322 324 324 325 324 324 324 322 320 319 318 318 317 315 315
290 287 287 282 280 283 282 283 295 292 291 292 292 294 301 306 307 307 309 310 310 308 316 317 317 317 318 321 322 322 321 320 319 320 321 323 322 323 323 322 322 322 322 320 318 316 316 315 314

GFSSGP_sfc_thetae_120.txt.gz
Theta_e
324 320 320 318 306 306 302 304 308 306 307 311 312 312 311 312 309 305 330 341 344 342 349 350 346 348 350 350 351 353 353 354 354 353 352 353 353 353 353 353 352 352 352 352 351 350 350 349 349
324 316 319 314 302 299 301 307 305 308 309 311 311 311 310 309 315 321 330 344 345 345 349 350 345 347 349 351 350 351 353 354 353 351 353 353 352 352 352 352 350 350 350 350 350 350 349 348 347
319 317 311 306 302 299 300 307 308 308 310 310 310 313 312 311 320 323 332 346 345 345 347 349 344 345 346 350 349 349 351 352 351 350 352 352 352 352 352 349 348 349 350 351 349 348 347 346 344
315 314 310 301 300 303 303 308 309 307 309 311 312 309 313 319 322 329 334 344 344 344 345 344 342 345 346 350 349 349 349 350 350 350 351 352 350 350 344 343 342 344 347 347 347 345 345 343 341
314 311 302 300 301 303 306 309 309 306 307 309 310 309 311 320 327 333 334 340 342 345 347 351 341 344 347 350 349 347 348 348 349 349 349 350 348 343 338 341 340 340 342 347 346 345 342 341 339
307 308 299 298 301 303 305 308 307 306 307 308 308 309 313 323 326 332 337 340 346 347 350 351 344 343 345 347 348 345 345 345 346 348 348 347 344 342 342 341 341 342 341 344 343 342 341 339 338
305 304 300 300 301 301 303 308 306 306 307 307 311 308 314 318 326 335 339 343 348 351 351 352 349 347 342 343 343 342 342 343 344 345 345 342 341 341 340 341 343 342 342 342 342 340 338 338 336
308 305 300 301 299 301 305 306 309 308 307 310 311 308 311 316 326 336 342 345 347 350 352 351 350 348 350 348 341 340 340 340 341 342 340 339 339 338 340 340 341 341 341 341 340 338 337 335 333
309 301 299 301 300 303 305 304 308 310 308 308 310 311 314 318 325 329 333 342 343 346 350 352 351 348 349 348 347 342 341 340 340 341 338 337 345 344 342 339 338 340 340 339 339 336 334 332 331
304 301 301 306 305 303 304 305 307 305 306 307 310 314 316 317 320 321 323 329 339 342 346 350 351 349 348 347 347 348 348 350 350 350 348 344 345 344 340 338 337 339 338 338 337 335 332 332 335
304 300 305 304 305 306 305 305 307 305 303 307 308 311 314 316 318 320 323 325 331 339 343 347 348 349 348 345 346 347 346 349 347 348 349 347 344 344 340 338 339 340 338 335 337 335 336 338 334
300 304 304 305 306 305 304 307 305 306 307 311 312 314 314 314 316 317 321 325 328 335 340 346 347 345 346 344 344 345 349 347 349 347 349 347 343 340 338 337 335 339 339 338 337 334 335 334 332
302 303 305 305 306 306 307 305 305 306 310 312 312 313 313 314 315 317 322 326 329 331 337 341 346 345 343 342 343 344 345 348 348 347 347 347 342 339 338 336 338 337 340 339 335 333 332 333 332
304 303 303 305 304 305 303 304 306 308 311 310 311 312 313 314 315 317 320 322 324 327 332 338 343 345 344 340 341 341 343 345 345 344 344 346 342 338 334 333 340 334 336 336 333 333 332 333 333
303 299 301 303 304 304 306 302 303 309 310 309 309 310 311 311 312 314 317 318 319 320 322 331 336 343 345 344 339 338 340 341 343 341 343 343 340 339 336 332 334 333 332 332 331 332 331 330 331
297 299 294 301 303 304 304 297 304 309 307 307 306 306 307 309 310 313 315 316 317 319 320 323 328 336 342 344 345 340 339 337 339 342 339 341 338 337 334 333 331 334 331 329 327 329 329 329 329
295 290 294 296 302 302 301 299 304 307 304 304 304 305 306 308 310 313 314 315 316 318 319 322 326 332 338 342 343 343 342 337 337 341 340 337 336 336 332 332 330 332 328 326 325 327 330 328 328
289 290 292 293 299 300 299 299 303 304 304 303 303 303 305 306 308 311 313 317 319 322 321 322 322 330 336 339 341 339 334 332 334 336 337 339 336 332 332 330 329 329 326 324 324 324 329 329 328
292 291 291 295 298 297 296 298 300 302 302 300 301 304 305 307 310 312 317 321 323 325 325 327 327 331 335 335 334 330 328 327 329 332 333 331 334 332 330 329 328 326 324 323 325 324 328 326 328
291 289 290 293 296 294 295 295 298 299 300 302 303 304 306 306 308 314 318 320 323 326 327 328 330 333 334 333 332 332 330 330 330 329 331 330 331 333 330 329 327 325 323 322 323 324 325 326 328
291 289 289 289 292 293 292 291 295 299 301 302 304 305 305 307 311 314 317 319 322 324 328 328 330 332 333 334 331 333 331 331 326 327 327 329 333 334 331 329 326 324 323 320 321 323 322 323 326
288 293 291 289 288 285 294 285 293 297 297 300 301 303 308 311 313 314 316 318 320 325 329 330 330 331 329 331 330 331 329 328 330 330 330 332 333 332 329 327 326 323 323 321 320 322 324 328 323
290 293 291 290 289 289 290 287 292 295 295 297 301 306 310 313 313 312 314 317 319 324 329 330 330 328 328 330 333 333 332 331 332 328 329 330 327 328 329 326 322 323 322 322 321 322 328 328 325
294 291 292 292 290 284 289 289 289 292 295 297 304 307 309 309 311 312 314 317 318 322 325 326 326 326 327 328 332 333 333 330 330 328 329 330 324 323 324 321 320 319 320 320 320 321 326 327 328
291 288 282 280 281 281 290 287 290 295 299 302 303 305 307 309 310 312 313 315 317 320 321 323 322 323 323 325 329 330 330 330 328 329 328 328 324 321 320 320 318 317 318 318 320 320 326 327 327
289 288 281 275 279 283 289 284 290 301 303 303 304 304 306 308 310 311 313 316 318 321 324 324 323 321 323 323 325 328 329 328 327 329 328 327 326 324 323 320 319 316 316 317 318 320 324 327 328
288 286 292 285 285 282 286 291 297 299 298 299 300 302 305 307 309 310 312 315 317 318 321 325 323 323 322 321 323 325 327 330 329 330 330 331 328 326 326 324 321 319 316 315 317 320 321 323 328
290 292 284 285 277 277 283 286 288 293 292 293 293 295 299 304 307 309 311 313 315 316 317 317 325 322 322 321 323 327 328 330 330 329 330 330 327 327 325 323 322 321 320 317 317 318 320 322 323
288 288 288 288 285 280 279 284 297 295 294 292 294 295 297 301 305 308 311 312 313 316 316 315 318 320 320 321 321 326 327 328 329 325 326 326 325 324 324 324 323 322 321 321 319 317 318 321 322
290 287 288 284 283 286 285 285 298 298 296 294 295 295 297 299 306 308 310 312 312 314 315 314 310 319 320 321 322 324 327 327 327 325 326 326 324 328 327 325 324 322 319 319 319 317 320 322 321

GFSSGP_sfc_thetae_123.txt.gz
Theta_e
326 324 321 318 307 306 303 306 311 309 310 314 316 315 313 314 311 308 327 337 337 338 347 350 348 350 350 351 352 353 354 354 354 354 353 353 353 354 354 354 352 351 352 351 351 350 350 350 349
327 320 318 314 303 300 303 309 307 310 313 315 314 316 312 310 317 320 327 342 339 339 347 349 346 349 350 351 352 353 354 354 353 353 353 353 353 354 353 353 351 348 350 351 350 350 348 348 347
325 318 312 308 304 300 302 309 310 313 313 313 313 316 315 313 319 322 331 342 339 339 343 350 345 346 349 350 351 352 353 352 352 352 352 352 353 353 352 348 346 347 348 350 349 348 348 347 344
318 314 312 303 302 306 306 309 312 310 312 314 315 311 316 321 322 325 332 338 337 338 341 343 343 345 348 350 350 350 352 350 350 350 351 352 353 352 347 341 341 340 341 344 347 346 345 343 342
317 312 304 302 302 306 309 311 313 310 311 312 314 311 313 320 327 330 332 337 336 339 344 351 342 344 347 350 350 349 349 349 349 350 350 350 351 349 344 336 335 338 334 340 343 345 344 342 340
309 310 302 300 303 307 309 310 311 311 311 312 311 312 315 326 325 330 334 336 341 342 346 353 344 344 346 348 348 346 346 347 348 348 349 349 348 345 336 340 340 340 341 341 343 342 342 340 339
307 307 302 303 304 306 307 311 308 309 310 311 314 310 316 321 326 333 336 338 344 349 351 352 351 348 344 344 344 343 343 344 346 345 345 345 342 339 340 341 341 341 341 342 342 340 339 339 337
311 308 303 305 303 304 310 309 310 309 309 315 314 309 312 320 326 332 338 340 345 350 354 352 352 351 350 350 342 341 341 341 343 344 342 340 339 338 340 340 340 342 343 342 341 338 337 336 334
314 303 301 303 304 306 311 306 311 313 310 311 314 314 318 319 322 328 334 339 343 347 352 353 352 351 352 351 348 342 341 340 341 343 339 337 346 343 342 339 340 342 341 341 339 337 335 333 332
308 303 303 309 310 308 309 307 309 308 308 309 311 315 317 318 319 321 323 328 337 341 347 351 353 352 352 347 350 349 349 348 348 349 350 349 349 346 342 339 337 340 339 339 337 335 332 333 335
308 302 308 309 311 310 308 308 310 308 306 309 309 312 316 317 318 320 321 323 326 336 343 347 351 353 351 348 348 347 347 348 348 349 350 350 345 347 344 345 339 342 338 340 338 335 338 338 336
304 307 308 308 310 308 306 309 308 308 309 313 314 315 315 316 317 318 319 322 324 328 338 345 349 351 351 349 346 347 347 348 348 347 353 350 347 347 342 344 342 338 339 340 337 336 334 337 335
304 305 307 308 308 308 308 306 307 309 312 314 314 314 314 315 316 318 320 321 325 327 333 342 348 350 349 350 345 347 348 347 348 349 352 350 346 343 343 342 337 337 341 337 337 336 336 334 331
306 306 306 307 307 307 305 305 307 309 313 312 312 313 314 315 317 319 319 320 323 327 331 338 343 348 348 347 345 345 350 348 348 349 348 352 347 345 341 341 342 339 340 338 334 336 330 331 331
305 301 304 305 306 305 307 303 303 309 311 310 311 313 314 315 317 317 319 320 322 324 326 331 337 343 348 346 343 343 346 348 348 348 352 350 348 345 342 339 340 338 335 333 332 336 330 328 330
300 301 296 303 304 305 305 297 306 311 310 310 311 312 312 314 314 315 317 319 321 321 322 323 323 337 344 347 344 341 343 345 347 347 346 348 349 345 343 339 338 337 333 331 329 329 328 328 329
297 292 295 298 305 304 303 299 306 310 309 308 310 310 310 311 313 314 315 317 318 319 319 322 326 331 340 344 345 345 340 340 342 346 345 341 344 344 341 338 335 336 335 330 328 327 327 328 327
290 291 294 294 299 301 300 300 305 308 308 308 308 308 308 308 309 313 314 315 319 323 325 327 326 330 334 340 344 345 343 341 338 341 344 344 344 342 340 336 334 336 331 328 326 325 327 329 329
294 292 291 295 299 297 298 299 302 306 307 306 307 307 307 307 310 313 314 318 321 324 326 326 327 331 328 330 335 340 340 337 334 337 344 342 340 341 336 335 332 330 327 326 326 324 323 326 328
295 292 291 294 296 295 295 295 299 302 304 305 305 305 305 308 310 311 315 319 322 324 326 330 329 330 330 330 335 339 339 330 330 334 338 339 339 336 336 334 329 330 327 324 324 323 321 322 328
292 291 291 290 294 295 294 292 295 299 301 303 305 305 307 308 309 312 315 318 321 323 328 330 329 331 333 334 336 334 332 330 328 330 331 336 335 336 336 333 329 327 327 323 323 323 321 319 324
290 295 293 291 290 286 294 284 293 296 298 301 303 304 306 309 312 313 313 316 319 323 329 332 332 332 333 336 335 331 327 326 327 329 330 334 334 334 334 334 330 326 326 324 323 324 323 321 320
292 296 293 292 290 290 290 287 292 297 296 298 301 304 308 312 312 312 313 315 318 323 325 329 332 332 333 333 334 330 329 332 333 334 331 331 333 334 335 334 331 326 325 324 324 323 322 323 323
297 294 292 292 289 282 288 288 290 293 297 299 302 307 310 310 311 312 314 316 318 324 326 326 328 328 328 330 331 330 330 332 332 331 330 331 333 333 333 332 329 328 324 323 323 324 322 322 324
293 289 281 279 280 282 290 288 290 296 299 301 303 307 308 310 311 311 312 315 317 320 323 326 325 325 327 328 330 330 332 331 333 329 329 330 327 326 327 327 324 324 323 322 322 322 321 321 322
291 290 282 276 279 284 290 285 291 298 304 306 307 307 308 309 311 311 312 314 316 318 320 323 325 324 324 327 327 328 331 331 332 331 331 331 328 326 326 323 322 321 320 321 322 322 322 322 322
291 288 292 285 286 283 287 291 298 301 301 303 304 305 306 307 309 309 311 313 315 315 317 320 324 325 324 324 327 325 327 331 332 331 330 332 331 329 325 323 320 319 318 319 320 320 321 322 323
292 295 285 285 278 277 284 286 289 295 296 299 299 299 300 302 304 307 310 312 313 315 317 319 321 324 325 325 325 324 325 329 330 331 331 332 332 329 325 324 320 317 317 317 318 319 320 321 322
288 288 289 289 286 281 279 283 295 297 296 295 296 297 298 299 300 305 308 311 313 315 317 317 318 319 323 324 324 324 324 327 329 329 330 331 331 330 328 323 321 317 315 316 317 317 319 319 320
291 289 287 284 283 286 285 285 298 299 298 298 297 297 298 300 300 303 308 310 312 314 315 315 315 316 317 322 322 323 323 326 325 327 329 331 329 330 327 324 322 319 317 316 316 315 317 317 319